Observation data for Umbarger on 11/07/2019      Previous  Date       Current Mesonet Observations  Soil Data  Daily Summary Page  Observations in Plain Language
KUM1 070600Z 03022KT 01/M00 A3027 RMK A01 T00111001  RH  091%=      5-min Rain = 0
KUM1 070601Z 03022KT 01/M00 A3027 RMK A01 T00111001  RH  091%=      5-min Rain = 0
KUM1 070602Z 03020KT 01/M00 A3027 RMK A01 T00111001  RH  092%=      5-min Rain = 0
KUM1 070603Z 02024KT 01/M00 A3027 RMK A01 T00111001  RH  092%=      5-min Rain = 0
KUM1 070604Z 02022KT 01/M00 A3027 RMK A01 T00111001  RH  092%=      5-min Rain = 0
KUM1 070605Z 02025KT 01/M00 A3027 RMK A01 T00101002  RH  092%=      5-min Rain = 0
KUM1 070606Z 02023KT 01/M00 A3027 RMK A01 T00101003  RH  091%=      5-min Rain = 0
KUM1 070607Z 02022G27KT 01/M00 A3027 RMK A01 T00101003  RH  091%=      5-min Rain = 0
KUM1 070608Z 02022KT 01/M00 A3026 RMK A01 T00091003  RH  091%=      5-min Rain = 0
KUM1 070609Z 02026KT 01/M00 A3026 RMK A01 T00091003  RH  092%=      5-min Rain = 0
KUM1 070610Z 02022G27KT 01/M00 A3026 RMK A01 T00091003  RH  092%=      5-min Rain = 0
KUM1 070611Z 02021KT 01/M00 A3026 RMK A01 T00091003  RH  092%=      5-min Rain = 0
KUM1 070612Z 02021KT 01/M00 A3026 RMK A01 T00091003  RH  092%=      5-min Rain = 0
KUM1 070613Z 02024KT 01/M00 A3027 RMK A01 T00091003  RH  092%=      5-min Rain = 0
KUM1 070614Z 02022KT 01/M00 A3027 RMK A01 T00091003  RH  092%=      5-min Rain = 0
KUM1 070615Z 01020G25KT 01/M00 A3027 RMK A01 T00081003  RH  092%=      5-min Rain = 0
KUM1 070616Z 02022KT 01/M00 A3028 RMK A01 T00091003  RH  092%=      5-min Rain = 0
KUM1 070617Z 02019G25KT 01/M00 A3028 RMK A01 T00081003  RH  092%=      5-min Rain = 0
KUM1 070618Z 02023KT 01/M00 A3028 RMK A01 T00081003  RH  092%=      5-min Rain = 0
KUM1 070619Z 01021G26KT 01/M00 A3028 RMK A01 T00081004  RH  092%=      5-min Rain = 0
KUM1 070620Z 01020G25KT 01/M00 A3029 RMK A01 T00081004  RH  092%=      5-min Rain = 0
KUM1 070621Z 01023KT 01/M00 A3029 RMK A01 T00081003  RH  092%=      5-min Rain = 0
KUM1 070622Z 01022G28KT 01/M00 A3029 RMK A01 T00081004  RH  092%=      5-min Rain = 0
KUM1 070623Z 01021G27KT 01/M00 A3029 RMK A01 T00081004  RH  092%=      5-min Rain = 0
KUM1 070624Z 01025KT 01/M00 A3029 RMK A01 T00081003  RH  092%=      5-min Rain = 0
KUM1 070625Z 01024KT 01/M00 A3029 RMK A01 T00071004  RH  092%=      5-min Rain = 0
KUM1 070626Z 01022KT 01/M01 A3029 RMK A01 T00061005  RH  092%=      5-min Rain = 0
KUM1 070627Z 02019KT 01/M01 A3029 RMK A01 T00061005  RH  093%=      5-min Rain = 0
KUM1 070628Z 01019G25KT 01/M00 A3029 RMK A01 T00061004  RH  093%=      5-min Rain = 0
KUM1 070629Z 02022KT 01/M00 A3029 RMK A01 T00061004  RH  093%=      5-min Rain = 0
KUM1 070630Z 02021KT 01/M01 A3029 RMK A01 T00051005  RH  093%=      5-min Rain = 0
KUM1 070631Z 02019KT 01/M01 A303 RMK A01 T00051005  RH  093%=      5-min Rain = 0
KUM1 070632Z 02020KT 01/M01 A303 RMK A01 T00051005  RH  093%=      5-min Rain = 0
KUM1 070633Z 02022G27KT 00/M01 A303 RMK A01 T00041005  RH  093%=      5-min Rain = 0
KUM1 070634Z 02026KT 00/M01 A303 RMK A01 T00041005  RH  094%=      5-min Rain = 0
KUM1 070635Z 01022KT 00/M01 A303 RMK A01 T00021007  RH  094%=      5-min Rain = 0
KUM1 070636Z 01024KT 00/M01 A303 RMK A01 T00021007  RH  094%=      5-min Rain = 0
KUM1 070637Z 02019KT 00/M01 A303 RMK A01 T00021006  RH  094%=      5-min Rain = 0
KUM1 070638Z 02021G26KT 00/M01 A303 RMK A01 T00021006  RH  095%=      5-min Rain = 0
KUM1 070639Z 02024KT 00/M01 A303 RMK A01 T00021006  RH  095%=      5-min Rain = 0
KUM1 070640Z 01025G30KT 00/M01 A303 RMK A01 T00011006  RH  095%=      5-min Rain = 0
KUM1 070641Z 01022KT 00/M01 A303 RMK A01 T00011007  RH  095%=      5-min Rain = 0
KUM1 070642Z 01024KT 00/M01 A303 RMK A01 T00011006  RH  095%=      5-min Rain = 0
KUM1 070643Z 01020G27KT 00/M01 A303 RMK A01 T00011006  RH  095%=      5-min Rain = 0
KUM1 070644Z 01024KT 00/01 A303 RMK A01 T000000-6  RH  095%=      5-min Rain = 0
KUM1 070645Z 01021KT 00/01 A303 RMK A01 T000000-6  RH  095%=      5-min Rain = 0
KUM1 070646Z 02023KT 00/M01 A303 RMK A01 T00011006  RH  095%=      5-min Rain = 0
KUM1 070647Z 02023KT 00/01 A303 RMK A01 T000000-6  RH  095%=      5-min Rain = 0
KUM1 070648Z 02026KT 00/01 A303 RMK A01 T000000-6  RH  096%=      5-min Rain = 0
KUM1 070649Z 02025KT 00/01 A303 RMK A01 T00-000-6  RH  096%=      5-min Rain = 0
KUM1 070650Z 02020KT 00/01 A303 RMK A01 T00-000-7  RH  096%=      5-min Rain = 0
KUM1 070651Z 02021KT 00/01 A303 RMK A01 T000000-6  RH  096%=      5-min Rain = 0
KUM1 070652Z 02023G28KT 00/01 A303 RMK A01 T000000-6  RH  096%=      5-min Rain = 0
KUM1 070653Z 02025KT 00/01 A303 RMK A01 T00-000-6  RH  096%=      5-min Rain = 0
KUM1 070654Z 01024KT M00/M01 A3031 RMK A01 T10011007  RH  096%=      5-min Rain = 0
KUM1 070655Z 01021KT M00/M01 A3031 RMK A01 T10011007  RH  096%=      5-min Rain = 0
KUM1 070656Z 01022KT M00/M01 A3031 RMK A01 T10011006  RH  096%=      5-min Rain = 0
KUM1 070657Z 01020KT M00/M01 A3031 RMK A01 T10011006  RH  096%=      5-min Rain = 0
KUM1 070658Z 01020KT M00/M01 A3032 RMK A01 T10011006  RH  096%=      5-min Rain = 0
KUM1 070659Z 01019KT M00/M01 A3032 RMK A01 T10011006  RH  096%=      5-min Rain = 0
KUM1 070700Z 01018G24KT M00/M01 A3032 RMK A01 T10011006  RH  096%=      5-min Rain = 0
KUM1 070701Z 01023KT 00/01 A3032 RMK A01 T00-000-6  RH  096%=      5-min Rain = 0
KUM1 070702Z 01021G26KT M00/M01 A3032 RMK A01 T10011007  RH  096%=      5-min Rain = 0
KUM1 070703Z 02024G29KT M00/M01 A3032 RMK A01 T10011007  RH  096%=      5-min Rain = 0
KUM1 070704Z 02024G29KT M00/M01 A3032 RMK A01 T10021008  RH  096%=      5-min Rain = 0
KUM1 070705Z 01023KT M00/M01 A3032 RMK A01 T10031008  RH  096%=      5-min Rain = 0
KUM1 070706Z 01024KT M00/M01 A3032 RMK A01 T10021008  RH  096%=      5-min Rain = 0
KUM1 070707Z 01024KT M00/M01 A3032 RMK A01 T10031008  RH  096%=      5-min Rain = 0
KUM1 070708Z 01021G27KT M00/M01 A3032 RMK A01 T10031008  RH  096%=      5-min Rain = 0
KUM1 070709Z 01025KT M00/M01 A3032 RMK A01 T10021008  RH  096%=      5-min Rain = 0
KUM1 070710Z 01024G30KT M00/M01 A3032 RMK A01 T10031008  RH  096%=      5-min Rain = 0
KUM1 070711Z 01025G30KT M00/M01 A3032 RMK A01 T10031008  RH  096%=      5-min Rain = 0
KUM1 070712Z 01025KT M00/M01 A3032 RMK A01 T10031009  RH  096%=      5-min Rain = 0
KUM1 070713Z 01025KT M00/M01 A3032 RMK A01 T10031008  RH  096%=      5-min Rain = 0
KUM1 070714Z 01023KT M00/M01 A3032 RMK A01 T10031008  RH  096%=      5-min Rain = 0
KUM1 070715Z 01020KT M00/M01 A3032 RMK A01 T10031008  RH  097%=      5-min Rain = 0
KUM1 070716Z 01021KT M00/M01 A3033 RMK A01 T10031008  RH  097%=      5-min Rain = 0
KUM1 070717Z 01025KT M00/M01 A3033 RMK A01 T10031008  RH  097%=      5-min Rain = 0
KUM1 070718Z 01024KT M00/M01 A3033 RMK A01 T10031008  RH  097%=      5-min Rain = 0
KUM1 070719Z 01025KT M00/M01 A3033 RMK A01 T10031008  RH  097%=      5-min Rain = 0
KUM1 070720Z 01023KT M00/M01 A3033 RMK A01 T10031008  RH  097%=      5-min Rain = 0
KUM1 070721Z 01027KT M00/M01 A3033 RMK A01 T10041008  RH  097%=      5-min Rain = 0
KUM1 070722Z 02026KT M00/M01 A3033 RMK A01 T10041008  RH  097%=      5-min Rain = 0
KUM1 070723Z 02023KT M00/M01 A3033 RMK A01 T10041008  RH  097%=      5-min Rain = 0
KUM1 070724Z 02021G26KT M00/M01 A3033 RMK A01 T10041008  RH  097%=      5-min Rain = 0
KUM1 070725Z 01024KT M00/M01 A3033 RMK A01 T10041008  RH  097%=      5-min Rain = 0
KUM1 070726Z 01024KT M00/M01 A3033 RMK A01 T10041008  RH  097%=      5-min Rain = 0
KUM1 070727Z 01026KT M00/M01 A3033 RMK A01 T10041009  RH  097%=      5-min Rain = 0
KUM1 070728Z 01024G29KT M01/M01 A3033 RMK A01 T10051009  RH  097%=      5-min Rain = 0
KUM1 070729Z 01023KT M01/M01 A3033 RMK A01 T10051010  RH  097%=      5-min Rain = 0
KUM1 070730Z 01024G29KT M01/M01 A3033 RMK A01 T10061010  RH  097%=      5-min Rain = 0
KUM1 070731Z 01024KT M01/M01 A3033 RMK A01 T10061010  RH  097%=      5-min Rain = 0
KUM1 070732Z 02025KT M01/M01 A3033 RMK A01 T10061010  RH  097%=      5-min Rain = 0
KUM1 070733Z 01026KT M01/M01 A3033 RMK A01 T10061010  RH  097%=      5-min Rain = 0
KUM1 070734Z 02023KT M01/M01 A3033 RMK A01 T10061010  RH  097%=      5-min Rain = 0
KUM1 070735Z 01027G32KT M01/M01 A3033 RMK A01 T10061010  RH  097%=      5-min Rain = 0
KUM1 070736Z 02026G31KT M01/M01 A3033 RMK A01 T10071011  RH  097%=      5-min Rain = 0
KUM1 070737Z 02028KT M01/M01 A3033 RMK A01 T10071011  RH  097%=      5-min Rain = 0
KUM1 070738Z 02024KT M01/M01 A3032 RMK A01 T10071011  RH  097%=      5-min Rain = 0
KUM1 070739Z 02026KT M01/M01 A3033 RMK A01 T10071011  RH  097%=      5-min Rain = 0
KUM1 070740Z 02025G30KT M01/M01 A3033 RMK A01 T10071011  RH  097%=      5-min Rain = 0
KUM1 070741Z 02026KT M01/M01 A3033 RMK A01 T10071011  RH  097%=      5-min Rain = 0
KUM1 070742Z 01026KT M01/M01 A3033 RMK A01 T10071011  RH  097%=      5-min Rain = 0
KUM1 070743Z 01026KT M01/M01 A3033 RMK A01 T10071011  RH  097%=      5-min Rain = 0
KUM1 070744Z 01025KT M01/M01 A3033 RMK A01 T10071011  RH  097%=      5-min Rain = 0
KUM1 070745Z 01023KT M01/M01 A3034 RMK A01 T10071011  RH  097%=      5-min Rain = 0
KUM1 070746Z 01020G25KT M01/M01 A3033 RMK A01 T10081011  RH  097%=      5-min Rain = 0
KUM1 070747Z 01023KT M01/M01 A3034 RMK A01 T10071011  RH  097%=      5-min Rain = 0
KUM1 070748Z 01027KT M01/M01 A3034 RMK A01 T10071011  RH  097%=      5-min Rain = 0
KUM1 070749Z 01024KT M01/M01 A3034 RMK A01 T10071011  RH  097%=      5-min Rain = 0
KUM1 070750Z 01024KT M01/M01 A3034 RMK A01 T10071011  RH  097%=      5-min Rain = 0
KUM1 070751Z 02025G30KT M01/M01 A3034 RMK A01 T10071011  RH  097%=      5-min Rain = 0
KUM1 070752Z 01023KT M01/M01 A3035 RMK A01 T10081011  RH  097%=      5-min Rain = 0
KUM1 070753Z 01027KT M01/M01 A3035 RMK A01 T10081011  RH  097%=      5-min Rain = 0
KUM1 070754Z 01023KT M01/M01 A3035 RMK A01 T10081012  RH  097%=      5-min Rain = 0
KUM1 070755Z 02026G31KT M01/M01 A3035 RMK A01 T10091012  RH  097%=      5-min Rain = 0
KUM1 070756Z 01024G29KT M01/M01 A3035 RMK A01 T10091013  RH  097%=      5-min Rain = 0
KUM1 070757Z 01024KT M01/M01 A3035 RMK A01 T10081012  RH  097%=      5-min Rain = 0
KUM1 070758Z 01025KT M01/M01 A3035 RMK A01 T10091013  RH  097%=      5-min Rain = 0
KUM1 070759Z 01026G31KT M01/M01 A3035 RMK A01 T10091013  RH  097%=      5-min Rain = 0
KUM1 070800Z 01023G28KT M01/M01 A3035 RMK A01 T10091013  RH  097%=      5-min Rain = 0
KUM1 070801Z 01027G32KT M01/M01 A3035 RMK A01 T10091013  RH  097%=      5-min Rain = 0
KUM1 070802Z 01027G33KT M01/M01 A3035 RMK A01 T10091013  RH  097%=      5-min Rain = 0
KUM1 070803Z 01029KT M01/M01 A3035 RMK A01 T10101014  RH  097%=      5-min Rain = 0
KUM1 070804Z 01024G30KT M01/M02 A3035 RMK A01 T10101015  RH  097%=      5-min Rain = 0
KUM1 070805Z 01021KT M01/M01 A3035 RMK A01 T10101014  RH  097%=      5-min Rain = 0
KUM1 070806Z 02024G30KT M01/M02 A3035 RMK A01 T10101015  RH  097%=      5-min Rain = 0
KUM1 070807Z 01024KT M01/M02 A3035 RMK A01 T10101015  RH  097%=      5-min Rain = 0
KUM1 070808Z 01024KT M01/M02 A3035 RMK A01 T10101015  RH  097%=      5-min Rain = 0
KUM1 070809Z 01025G32KT M01/M01 A3035 RMK A01 T10101014  RH  097%=      5-min Rain = 0
KUM1 070810Z 01026KT M01/M02 A3035 RMK A01 T10101015  RH  097%=      5-min Rain = 0
KUM1 070811Z 01026KT M01/M02 A3035 RMK A01 T10101015  RH  096%=      5-min Rain = 0
KUM1 070812Z 02026G31KT M01/M02 A3035 RMK A01 T10101015  RH  096%=      5-min Rain = 0
KUM1 070813Z 01027KT M01/M02 A3035 RMK A01 T10101015  RH  096%=      5-min Rain = 0
KUM1 070814Z 01023G29KT M01/M02 A3034 RMK A01 T10101015  RH  096%=      5-min Rain = 0
KUM1 070815Z 01024G29KT M01/M02 A3035 RMK A01 T10111016  RH  096%=      5-min Rain = 0
KUM1 070816Z 01026KT M01/M02 A3035 RMK A01 T10101015  RH  096%=      5-min Rain = 0
KUM1 070817Z 01025KT M01/M02 A3034 RMK A01 T10101016  RH  096%=      5-min Rain = 0
KUM1 070818Z 01027KT M01/M02 A3034 RMK A01 T10111016  RH  096%=      5-min Rain = 0
KUM1 070819Z 01025G30KT M01/M02 A3035 RMK A01 T10111016  RH  096%=      5-min Rain = 0
KUM1 070820Z 02023G29KT M01/M02 A3034 RMK A01 T10111016  RH  096%=      5-min Rain = 0
KUM1 070821Z 02027KT M01/M02 A3034 RMK A01 T10111016  RH  096%=      5-min Rain = 0
KUM1 070822Z 02028KT M01/M02 A3034 RMK A01 T10111016  RH  096%=      5-min Rain = 0
KUM1 070823Z 01029KT M01/M02 A3034 RMK A01 T10111016  RH  096%=      5-min Rain = 0
KUM1 070824Z 01028G33KT M01/M02 A3034 RMK A01 T10111016  RH  096%=      5-min Rain = 0
KUM1 070825Z 01025KT M01/M02 A3034 RMK A01 T10111016  RH  096%=      5-min Rain = 0
KUM1 070826Z 02026G31KT M01/M02 A3034 RMK A01 T10111016  RH  096%=      5-min Rain = 0
KUM1 070827Z 02023G28KT M01/M02 A3034 RMK A01 T10101016  RH  096%=      5-min Rain = 0
KUM1 070828Z 02024G29KT M01/M02 A3034 RMK A01 T10101016  RH  096%=      5-min Rain = 0
KUM1 070829Z 02029KT M01/M02 A3034 RMK A01 T10101015  RH  096%=      5-min Rain = 0
KUM1 070830Z 02025KT M01/M02 A3034 RMK A01 T10101016  RH  096%=      5-min Rain = 0
KUM1 070831Z 02021KT M01/M02 A3034 RMK A01 T10101016  RH  096%=      5-min Rain = 0
KUM1 070832Z 02027G33KT M01/M02 A3034 RMK A01 T10101015  RH  096%=      5-min Rain = 0
KUM1 070833Z 02025G30KT M01/M02 A3034 RMK A01 T10101016  RH  096%=      5-min Rain = 0
KUM1 070834Z 02024G29KT M01/M02 A3035 RMK A01 T10111016  RH  096%=      5-min Rain = 0
KUM1 070835Z 02024G29KT M01/M02 A3035 RMK A01 T10111016  RH  096%=      5-min Rain = 0
KUM1 070836Z 02026KT M01/M02 A3035 RMK A01 T10111016  RH  096%=      5-min Rain = 0
KUM1 070837Z 02027KT M01/M02 A3035 RMK A01 T10111016  RH  096%=      5-min Rain = 0
KUM1 070838Z 02023KT M01/M02 A3036 RMK A01 T10111016  RH  097%=      5-min Rain = 0
KUM1 070839Z 01021G26KT M01/M02 A3036 RMK A01 T10111016  RH  097%=      5-min Rain = 0
KUM1 070840Z 01018KT M01/M02 A3036 RMK A01 T10101015  RH  097%=      5-min Rain = 0
KUM1 070841Z 02024KT M01/M02 A3036 RMK A01 T10101015  RH  097%=      5-min Rain = 0
KUM1 070842Z 01024KT M01/M02 A3036 RMK A01 T10111015  RH  097%=      5-min Rain = 0
KUM1 070843Z 02021KT M01/M02 A3036 RMK A01 T10111015  RH  097%=      5-min Rain = 0
KUM1 070844Z 01022KT M01/M02 A3036 RMK A01 T10111015  RH  097%=      5-min Rain = 0
KUM1 070845Z 02019KT M01/M02 A3036 RMK A01 T10111015  RH  097%=      5-min Rain = 0
KUM1 070846Z 01020KT M01/M02 A3036 RMK A01 T10111015  RH  097%=      5-min Rain = 0
KUM1 070847Z 02023KT M01/M02 A3036 RMK A01 T10111015  RH  097%=      5-min Rain = 0
KUM1 070848Z 01020G26KT M01/M02 A3037 RMK A01 T10111015  RH  097%=      5-min Rain = 0
KUM1 070849Z 00019KT M01/M02 A3037 RMK A01 T10111015  RH  097%=      5-min Rain = 0
KUM1 070850Z 01023KT M01/M02 A3037 RMK A01 T10111015  RH  097%=      5-min Rain = 0
KUM1 070851Z 01024KT M01/M02 A3037 RMK A01 T10111015  RH  097%=      5-min Rain = 0
KUM1 070852Z 01018KT M01/M02 A3037 RMK A01 T10121016  RH  097%=      5-min Rain = 0
KUM1 070853Z 01021G26KT M01/M02 A3037 RMK A01 T10121016  RH  097%=      5-min Rain = 0
KUM1 070854Z 01023G28KT M01/M02 A3037 RMK A01 T10121016  RH  097%=      5-min Rain = 0
KUM1 070855Z 01026G31KT M01/M02 A3037 RMK A01 T10121017  RH  097%=      5-min Rain = 0
KUM1 070856Z 01024G29KT M01/M02 A3037 RMK A01 T10131018  RH  097%=      5-min Rain = 0
KUM1 070857Z 01022KT M01/M02 A3037 RMK A01 T10131018  RH  097%=      5-min Rain = 0
KUM1 070858Z 01023KT M01/M02 A3037 RMK A01 T10141018  RH  097%=      5-min Rain = 0
KUM1 070859Z 01023KT M01/M02 A3037 RMK A01 T10131018  RH  097%=      5-min Rain = 0
KUM1 070900Z 01024KT M01/M02 A3037 RMK A01 T10141019  RH  097%=      5-min Rain = 0
KUM1 070901Z 02022G27KT M01/M02 A3037 RMK A01 T10141019  RH  096%=      5-min Rain = 0
KUM1 070902Z 01023G31KT M01/M02 A3037 RMK A01 T10141019  RH  096%=      5-min Rain = 0
KUM1 070903Z 01025KT M02/M02 A3037 RMK A01 T10151020  RH  096%=      5-min Rain = 0
KUM1 070904Z 01026KT M02/M02 A3036 RMK A01 T10151021  RH  096%=      5-min Rain = 0
KUM1 070905Z 01025KT M02/M02 A3036 RMK A01 T10151021  RH  096%=      5-min Rain = 0
KUM1 070906Z 02023G28KT M02/M02 A3036 RMK A01 T10161021  RH  096%=      5-min Rain = 0
KUM1 070907Z 02026KT M02/M02 A3035 RMK A01 T10161021  RH  096%=      5-min Rain = 0
KUM1 070908Z 02021KT M02/M02 A3036 RMK A01 T10161022  RH  096%=      5-min Rain = 0
KUM1 070909Z 02027G33KT M02/M02 A3036 RMK A01 T10161021  RH  096%=      5-min Rain = 0
KUM1 070910Z 02026G31KT M02/M02 A3036 RMK A01 T10161022  RH  096%=      5-min Rain = 0
KUM1 070911Z 01025KT M02/M02 A3036 RMK A01 T10161022  RH  096%=      5-min Rain = 0
KUM1 070912Z 02023G28KT M02/M02 A3036 RMK A01 T10161022  RH  096%=      5-min Rain = 0
KUM1 070913Z 02027KT M02/M02 A3035 RMK A01 T10161022  RH  096%=      5-min Rain = 0
KUM1 070914Z 02027KT M02/M02 A3035 RMK A01 T10161023  RH  096%=      5-min Rain = 0
KUM1 070915Z 02026KT M02/M02 A3035 RMK A01 T10171023  RH  096%=      5-min Rain = 0
KUM1 070916Z 02027KT M02/M02 A3035 RMK A01 T10171023  RH  096%=      5-min Rain = 0
KUM1 070917Z 02023KT M02/M02 A3034 RMK A01 T10171023  RH  095%=      5-min Rain = 0
KUM1 070918Z 02022KT M02/M02 A3034 RMK A01 T10171023  RH  096%=      5-min Rain = 0
KUM1 070919Z 02025G30KT M02/M02 A3035 RMK A01 T10171023  RH  096%=      5-min Rain = 0
KUM1 070920Z 02023KT M02/M02 A3035 RMK A01 T10171023  RH  096%=      5-min Rain = 0
KUM1 070921Z 02024KT M02/M02 A3035 RMK A01 T10171023  RH  096%=      5-min Rain = 0
KUM1 070922Z 02020KT M02/M02 A3035 RMK A01 T10171023  RH  096%=      5-min Rain = 0
KUM1 070923Z 01022KT M02/M02 A3035 RMK A01 T10171023  RH  096%=      5-min Rain = 0
KUM1 070924Z 02021KT M02/M02 A3035 RMK A01 T10171022  RH  096%=      5-min Rain = 0
KUM1 070925Z 01022G29KT M02/M02 A3036 RMK A01 T10171022  RH  096%=      5-min Rain = 0
KUM1 070926Z 01028KT M02/M02 A3035 RMK A01 T10171022  RH  096%=      5-min Rain = 0
KUM1 070927Z 01023G28KT M02/M02 A3035 RMK A01 T10171023  RH  096%=      5-min Rain = 0
KUM1 070928Z 01026G32KT M02/M02 A3035 RMK A01 T10171023  RH  096%=      5-min Rain = 0
KUM1 070929Z 01024G29KT M02/M02 A3036 RMK A01 T10171023  RH  096%=      5-min Rain = 0
KUM1 070930Z 01023KT M02/M02 A3036 RMK A01 T10171024  RH  096%=      5-min Rain = 0
KUM1 070931Z 02026KT M02/M02 A3036 RMK A01 T10171024  RH  096%=      5-min Rain = 0
KUM1 070932Z 01026KT M02/M02 A3035 RMK A01 T10171024  RH  095%=      5-min Rain = 0
KUM1 070933Z 01026KT M02/M02 A3035 RMK A01 T10181024  RH  095%=      5-min Rain = 0
KUM1 070934Z 02027KT M02/M02 A3035 RMK A01 T10181024  RH  095%=      5-min Rain = 0
KUM1 070935Z 02025KT M02/M03 A3035 RMK A01 T10181025  RH  095%=      5-min Rain = 0
KUM1 070936Z 02024G29KT M02/M03 A3034 RMK A01 T10191025  RH  095%=      5-min Rain = 0
KUM1 070937Z 02028G33KT M02/M03 A3034 RMK A01 T10181025  RH  095%=      5-min Rain = 0
KUM1 070938Z 02025KT M02/M03 A3034 RMK A01 T10181025  RH  095%=      5-min Rain = 0
KUM1 070939Z 02027KT M02/M03 A3034 RMK A01 T10181025  RH  095%=      5-min Rain = 0
KUM1 070940Z 02026KT M02/M03 A3034 RMK A01 T10181025  RH  095%=      5-min Rain = 0
KUM1 070941Z 02023G28KT M02/M03 A3034 RMK A01 T10191026  RH  095%=      5-min Rain = 0
KUM1 070942Z 02021KT M02/M03 A3035 RMK A01 T10181025  RH  095%=      5-min Rain = 0
KUM1 070943Z 01024KT M02/M03 A3035 RMK A01 T10181025  RH  095%=      5-min Rain = 0
KUM1 070944Z 01027KT M02/M03 A3036 RMK A01 T10181025  RH  095%=      5-min Rain = 0
KUM1 070945Z 01027KT M02/M03 A3036 RMK A01 T10181025  RH  095%=      5-min Rain = 0
KUM1 070946Z 01025KT M02/M03 A3036 RMK A01 T10181025  RH  095%=      5-min Rain = 0
KUM1 070947Z 01025G30KT M02/M03 A3036 RMK A01 T10181026  RH  095%=      5-min Rain = 0
KUM1 070948Z 01023KT M02/M03 A3036 RMK A01 T10181025  RH  095%=      5-min Rain = 0
KUM1 070949Z 01026KT M02/M03 A3036 RMK A01 T10181025  RH  095%=      5-min Rain = 0
KUM1 070950Z 01023G28KT M02/M03 A3036 RMK A01 T10181025  RH  095%=      5-min Rain = 0
KUM1 070951Z 00024G29KT M02/M03 A3036 RMK A01 T10181025  RH  095%=      5-min Rain = 0
KUM1 070952Z 01025G31KT M02/M03 A3036 RMK A01 T10181025  RH  095%=      5-min Rain = 0
KUM1 070953Z 00023KT M02/M03 A3036 RMK A01 T10181025  RH  095%=      5-min Rain = 0
KUM1 070954Z 01023G28KT M02/M03 A3035 RMK A01 T10181025  RH  095%=      5-min Rain = 0
KUM1 070955Z 01028KT M02/M03 A3035 RMK A01 T10181025  RH  094%=      5-min Rain = 0
KUM1 070956Z 01029G34KT M02/M03 A3035 RMK A01 T10181026  RH  094%=      5-min Rain = 0
KUM1 070957Z 01028KT M02/M03 A3035 RMK A01 T10181027  RH  094%=      5-min Rain = 0
KUM1 070958Z 01024KT M02/M03 A3034 RMK A01 T10191027  RH  094%=      5-min Rain = 0
KUM1 070959Z 01025KT M02/M03 A3034 RMK A01 T10191027  RH  094%=      5-min Rain = 0
KUM1 071000Z 01025G30KT M02/M03 A3035 RMK A01 T10181027  RH  094%=      5-min Rain = 0
KUM1 071001Z 01024G29KT M02/M03 A3035 RMK A01 T10191027  RH  094%=      5-min Rain = 0
KUM1 071002Z 01021KT M02/M03 A3036 RMK A01 T10191027  RH  094%=      5-min Rain = 0
KUM1 071003Z 01023G28KT M02/M03 A3036 RMK A01 T10191028  RH  094%=      5-min Rain = 0
KUM1 071004Z 01020KT M02/M03 A3036 RMK A01 T10191027  RH  094%=      5-min Rain = 0
KUM1 071005Z 01019KT M02/M03 A3037 RMK A01 T10191027  RH  094%=      5-min Rain = 0
KUM1 071006Z 00023G28KT M02/M03 A3037 RMK A01 T10191027  RH  094%=      5-min Rain = 0
KUM1 071007Z 01022G28KT M02/M03 A3037 RMK A01 T10191027  RH  094%=      5-min Rain = 0
KUM1 071008Z 01025KT M02/M03 A3037 RMK A01 T10191028  RH  094%=      5-min Rain = 0
KUM1 071009Z 01025KT M02/M03 A3037 RMK A01 T10191028  RH  094%=      5-min Rain = 0
KUM1 071010Z 01023KT M02/M03 A3037 RMK A01 T10191028  RH  094%=      5-min Rain = 0
KUM1 071011Z 01024KT M02/M03 A3037 RMK A01 T10191027  RH  094%=      5-min Rain = 0
KUM1 071012Z 02022G27KT M02/M03 A3037 RMK A01 T10191028  RH  094%=      5-min Rain = 0
KUM1 071013Z 01025G30KT M02/M03 A3037 RMK A01 T10191028  RH  094%=      5-min Rain = 0
KUM1 071014Z 02024G30KT M02/M03 A3036 RMK A01 T10191028  RH  094%=      5-min Rain = 0
KUM1 071015Z 02019KT M02/M03 A3036 RMK A01 T10201029  RH  094%=      5-min Rain = 0
KUM1 071016Z 02021G26KT M02/M03 A3036 RMK A01 T10201028  RH  094%=      5-min Rain = 0
KUM1 071017Z 02025KT M02/M03 A3036 RMK A01 T10191028  RH  094%=      5-min Rain = 0
KUM1 071018Z 02024KT M02/M03 A3036 RMK A01 T10201028  RH  094%=      5-min Rain = 0
KUM1 071019Z 02020G26KT M02/M03 A3036 RMK A01 T10191028  RH  094%=      5-min Rain = 0
KUM1 071020Z 02022KT M02/M03 A3036 RMK A01 T10191028  RH  094%=      5-min Rain = 0
KUM1 071021Z 02022KT M02/M03 A3036 RMK A01 T10191028  RH  094%=      5-min Rain = 0
KUM1 071022Z 02021KT M02/M03 A3036 RMK A01 T10191028  RH  094%=      5-min Rain = 0
KUM1 071023Z 02020G25KT M02/M03 A3036 RMK A01 T10201028  RH  094%=      5-min Rain = 0
KUM1 071024Z 02023KT M02/M03 A3036 RMK A01 T10201028  RH  094%=      5-min Rain = 0
KUM1 071025Z 02021KT M02/M03 A3036 RMK A01 T10191027  RH  094%=      5-min Rain = 0
KUM1 071026Z 02021KT M02/M03 A3036 RMK A01 T10191027  RH  094%=      5-min Rain = 0
KUM1 071027Z 02020KT M02/M03 A3036 RMK A01 T10191027  RH  095%=      5-min Rain = 0
KUM1 071028Z 02023KT M02/M03 A3037 RMK A01 T10191027  RH  095%=      5-min Rain = 0
KUM1 071029Z 02021KT M02/M03 A3037 RMK A01 T10201027  RH  095%=      5-min Rain = 0
KUM1 071030Z 02021KT M02/M03 A3037 RMK A01 T10201027  RH  095%=      5-min Rain = 0
KUM1 071031Z 01021KT M02/M03 A3037 RMK A01 T10191026  RH  095%=      5-min Rain = 0
KUM1 071032Z 01020G25KT M02/M03 A3037 RMK A01 T10201027  RH  095%=      5-min Rain = 0
KUM1 071033Z 01020KT M02/M03 A3037 RMK A01 T10191026  RH  095%=      5-min Rain = 0
KUM1 071034Z 02018KT M02/M03 A3037 RMK A01 T10201026  RH  095%=      5-min Rain = 0
KUM1 071035Z 01021KT M02/M03 A3037 RMK A01 T10191026  RH  095%=      5-min Rain = 0
KUM1 071036Z 01017KT M02/M03 A3037 RMK A01 T10191026  RH  095%=      5-min Rain = 0
KUM1 071037Z 01021KT M02/M03 A3037 RMK A01 T10191026  RH  095%=      5-min Rain = 0
KUM1 071038Z 01027KT M02/M03 A3037 RMK A01 T10191025  RH  095%=      5-min Rain = 0
KUM1 071039Z 01028KT M02/M03 A3037 RMK A01 T10201026  RH  095%=      5-min Rain = 0
KUM1 071040Z 01026KT M02/M03 A3037 RMK A01 T10201027  RH  095%=      5-min Rain = 0
KUM1 071041Z 01024KT M02/M03 A3037 RMK A01 T10201027  RH  095%=      5-min Rain = 0
KUM1 071042Z 01025KT M02/M03 A3037 RMK A01 T10201027  RH  095%=      5-min Rain = 0
KUM1 071043Z 01025KT M02/M03 A3037 RMK A01 T10201027  RH  095%=      5-min Rain = 0
KUM1 071044Z 00024KT M02/M03 A3037 RMK A01 T10201027  RH  095%=      5-min Rain = 0
KUM1 071045Z 01023KT M02/M03 A3037 RMK A01 T10201027  RH  095%=      5-min Rain = 0
KUM1 071046Z 01022G27KT M02/M03 A3038 RMK A01 T10201027  RH  095%=      5-min Rain = 0
KUM1 071047Z 02019KT M02/M03 A3038 RMK A01 T10201027  RH  095%=      5-min Rain = 0
KUM1 071048Z 01021KT M02/M03 A3038 RMK A01 T10201027  RH  095%=      5-min Rain = 0
KUM1 071049Z 01019G25KT M02/M03 A3038 RMK A01 T10201028  RH  094%=      5-min Rain = 0
KUM1 071050Z 02019KT M02/M03 A3038 RMK A01 T10201028  RH  094%=      5-min Rain = 0
KUM1 071051Z 01018KT M02/M03 A3038 RMK A01 T10201028  RH  094%=      5-min Rain = 0
KUM1 071052Z 01016KT M02/M03 A3038 RMK A01 T10201029  RH  094%=      5-min Rain = 0
KUM1 071053Z 01017KT M02/M03 A3038 RMK A01 T10191028  RH  094%=      5-min Rain = 0
KUM1 071054Z 01019KT M02/M03 A3038 RMK A01 T10191028  RH  094%=      5-min Rain = 0
KUM1 071055Z 01015KT M02/M03 A3038 RMK A01 T10191027  RH  094%=      5-min Rain = 0
KUM1 071056Z 01015KT M02/M03 A3038 RMK A01 T10191027  RH  094%=      5-min Rain = 0
KUM1 071057Z 01021KT M02/M03 A3038 RMK A01 T10191026  RH  095%=      5-min Rain = 0
KUM1 071058Z 00022KT M02/M03 A3038 RMK A01 T10201027  RH  095%=      5-min Rain = 0
KUM1 071059Z 01022KT M02/M03 A3038 RMK A01 T10201028  RH  095%=      5-min Rain = 0
KUM1 071100Z 01023KT M02/M03 A3038 RMK A01 T10211029  RH  094%=      5-min Rain = 0
KUM1 071101Z 01027G33KT M02/M03 A3038 RMK A01 T10211029  RH  094%=      5-min Rain = 0
KUM1 071102Z 01029KT M02/M03 A3038 RMK A01 T10211031  RH  093%=      5-min Rain = 0
KUM1 071103Z 02025KT M02/M03 A3038 RMK A01 T10221032  RH  093%=      5-min Rain = 0
KUM1 071104Z 02027G32KT M02/M03 A3038 RMK A01 T10221032  RH  093%=      5-min Rain = 0
KUM1 071105Z 02028KT M02/M03 A3038 RMK A01 T10221032  RH  092%=      5-min Rain = 0
KUM1 071106Z 01022KT M02/M03 A3038 RMK A01 T10221033  RH  092%=      5-min Rain = 0
KUM1 071107Z 01021G26KT M02/M03 A3038 RMK A01 T10221033  RH  092%=      5-min Rain = 0
KUM1 071108Z 02024KT M02/M03 A3038 RMK A01 T10221033  RH  092%=      5-min Rain = 0
KUM1 071109Z 02025KT M02/M03 A3038 RMK A01 T10221033  RH  092%=      5-min Rain = 0
KUM1 071110Z 02025KT M02/M03 A3038 RMK A01 T10221032  RH  092%=      5-min Rain = 0
KUM1 071111Z 02024G29KT M02/M03 A3038 RMK A01 T10221032  RH  092%=      5-min Rain = 0
KUM1 071112Z 01024KT M02/M03 A3038 RMK A01 T10221033  RH  092%=      5-min Rain = 0
KUM1 071113Z 02026KT M02/M03 A3038 RMK A01 T10221032  RH  092%=      5-min Rain = 0
KUM1 071114Z 01025KT M02/M03 A3038 RMK A01 T10221032  RH  092%=      5-min Rain = 0
KUM1 071115Z 01024KT M02/M03 A3038 RMK A01 T10221032  RH  092%=      5-min Rain = 0
KUM1 071116Z 01023G28KT M02/M03 A3038 RMK A01 T10211032  RH  093%=      5-min Rain = 0
KUM1 071117Z 01022G27KT M02/M03 A3038 RMK A01 T10221032  RH  093%=      5-min Rain = 0
KUM1 071118Z 01029KT M02/M03 A3038 RMK A01 T10221032  RH  093%=      5-min Rain = 0
KUM1 071119Z 02024KT M02/M03 A3038 RMK A01 T10221032  RH  093%=      5-min Rain = 0
KUM1 071120Z 02023KT M02/M03 A3038 RMK A01 T10221032  RH  093%=      5-min Rain = 0
KUM1 071121Z 02024KT M02/M03 A3037 RMK A01 T10221032  RH  093%=      5-min Rain = 0
KUM1 071122Z 02021KT M02/M03 A3038 RMK A01 T10221032  RH  093%=      5-min Rain = 0
KUM1 071123Z 02018KT M02/M03 A3038 RMK A01 T10221031  RH  093%=      5-min Rain = 0
KUM1 071124Z 02024KT M02/M03 A3038 RMK A01 T10221031  RH  094%=      5-min Rain = 0
KUM1 071125Z 01021G26KT M02/M03 A3038 RMK A01 T10221031  RH  094%=      5-min Rain = 0
KUM1 071126Z 01020KT M02/M03 A3038 RMK A01 T10221031  RH  094%=      5-min Rain = 0
KUM1 071127Z 01019KT M02/M03 A3038 RMK A01 T10221030  RH  094%=      5-min Rain = 0
KUM1 071128Z 02021KT M02/M03 A3038 RMK A01 T10221030  RH  094%=      5-min Rain = 0
KUM1 071129Z 02024G30KT M02/M03 A3038 RMK A01 T10221030  RH  094%=      5-min Rain = 0
KUM1 071130Z 02023KT M02/M03 A3038 RMK A01 T10221030  RH  094%=      5-min Rain = 0
KUM1 071131Z 01020G25KT M02/M03 A3039 RMK A01 T10221030  RH  094%=      5-min Rain = 0
KUM1 071132Z 02019G24KT M02/M03 A3039 RMK A01 T10221030  RH  094%=      5-min Rain = 0
KUM1 071133Z 01022KT M02/M03 A3039 RMK A01 T10221030  RH  094%=      5-min Rain = 0
KUM1 071134Z 01026KT M02/M03 A3039 RMK A01 T10221031  RH  094%=      5-min Rain = 0
KUM1 071135Z 01027KT M02/M03 A3039 RMK A01 T10231032  RH  093%=      5-min Rain = 0
KUM1 071136Z 02024KT M02/M03 A3039 RMK A01 T10231033  RH  093%=      5-min Rain = 0
KUM1 071137Z 02027KT M02/M03 A3039 RMK A01 T10231033  RH  093%=      5-min Rain = 0
KUM1 071138Z 01025KT M02/M03 A3039 RMK A01 T10231033  RH  093%=      5-min Rain = 0
KUM1 071139Z 01023KT M02/M03 A3039 RMK A01 T10231033  RH  093%=      5-min Rain = 0
KUM1 071140Z 01027G32KT M02/M03 A3039 RMK A01 T10231033  RH  093%=      5-min Rain = 0
KUM1 071141Z 01027KT M02/M03 A3039 RMK A01 T10231033  RH  093%=      5-min Rain = 0
KUM1 071142Z 02026KT M02/M03 A304 RMK A01 T10231033  RH  093%=      5-min Rain = 0
KUM1 071143Z 02025KT M02/M03 A304 RMK A01 T10231034  RH  093%=      5-min Rain = 0
KUM1 071144Z 02020KT M02/M03 A304 RMK A01 T10231034  RH  093%=      5-min Rain = 0
KUM1 071145Z 02023G28KT M02/M03 A304 RMK A01 T10231033  RH  093%=      5-min Rain = 0
KUM1 071146Z 02021KT M02/M03 A304 RMK A01 T10231033  RH  093%=      5-min Rain = 0
KUM1 071147Z 02024KT M02/M03 A304 RMK A01 T10231033  RH  093%=      5-min Rain = 0
KUM1 071148Z 02023KT M02/M03 A304 RMK A01 T10231033  RH  093%=      5-min Rain = 0
KUM1 071149Z 02022KT M02/M03 A304 RMK A01 T10231033  RH  093%=      5-min Rain = 0
KUM1 071150Z 01021KT M02/M03 A304 RMK A01 T10231032  RH  093%=      5-min Rain = 0
KUM1 071151Z 01019KT M02/M03 A304 RMK A01 T10231032  RH  093%=      5-min Rain = 0
KUM1 071152Z 01018KT M02/M03 A304 RMK A01 T10231032  RH  094%=      5-min Rain = 0
KUM1 071153Z 02020KT M02/M03 A304 RMK A01 T10231032  RH  094%=      5-min Rain = 0
KUM1 071154Z 02021KT M02/M03 A304 RMK A01 T10231032  RH  094%=      5-min Rain = 0
KUM1 071155Z 01024KT M02/M03 A304 RMK A01 T10231032  RH  094%=      5-min Rain = 0
KUM1 071156Z 01024KT M02/M03 A3039 RMK A01 T10241033  RH  094%=      5-min Rain = 0
KUM1 071157Z 01024KT M02/M03 A3039 RMK A01 T10241033  RH  094%=      5-min Rain = 0
KUM1 071158Z 01025KT M02/M03 A3039 RMK A01 T10241033  RH  093%=      5-min Rain = 0
KUM1 071159Z 01024KT M03/M03 A3039 RMK A01 T10251034  RH  093%=      5-min Rain = 0
KUM1 071200Z 01020KT M02/M03 A3039 RMK A01 T10241033  RH  094%=      5-min Rain = 0
KUM1 071201Z 01020KT M02/M03 A3039 RMK A01 T10241033  RH  094%=      5-min Rain = 0
KUM1 071202Z 01023KT M02/M03 A3039 RMK A01 T10241033  RH  094%=      5-min Rain = 0
KUM1 071203Z 01024KT M03/M03 A3039 RMK A01 T10251033  RH  094%=      5-min Rain = 0
KUM1 071204Z 01026KT M02/M03 A304 RMK A01 T10241033  RH  094%=      5-min Rain = 0
KUM1 071205Z 01021G27KT M03/M03 A304 RMK A01 T10251033  RH  094%=      5-min Rain = 0
KUM1 071206Z 01023KT M03/M03 A304 RMK A01 T10251033  RH  094%=      5-min Rain = 0
KUM1 071207Z 01026KT M03/M03 A304 RMK A01 T10251033  RH  094%=      5-min Rain = 0
KUM1 071208Z 02024KT M03/M03 A3041 RMK A01 T10251033  RH  094%=      5-min Rain = 0
KUM1 071209Z 02021G26KT M03/M03 A3041 RMK A01 T10251033  RH  094%=      5-min Rain = 0
KUM1 071210Z 02018KT M03/M03 A304 RMK A01 T10251033  RH  094%=      5-min Rain = 0
KUM1 071211Z 02019KT M03/M03 A3041 RMK A01 T10251033  RH  094%=      5-min Rain = 0
KUM1 071212Z 02020KT M03/M03 A3041 RMK A01 T10251032  RH  095%=      5-min Rain = 0
KUM1 071213Z 01022KT M03/M03 A3041 RMK A01 T10251032  RH  094%=      5-min Rain = 0
KUM1 071214Z 01024KT M03/M03 A3041 RMK A01 T10251033  RH  094%=      5-min Rain = 0
KUM1 071215Z 01024KT M03/M03 A3041 RMK A01 T10251033  RH  094%=      5-min Rain = 0
KUM1 071216Z 01025KT M03/M03 A3041 RMK A01 T10251034  RH  094%=      5-min Rain = 0
KUM1 071217Z 01026KT M03/M03 A3041 RMK A01 T10251034  RH  094%=      5-min Rain = 0
KUM1 071218Z 02025KT M03/M03 A3041 RMK A01 T10251034  RH  094%=      5-min Rain = 0
KUM1 071219Z 01026G31KT M03/M03 A3041 RMK A01 T10251034  RH  094%=      5-min Rain = 0
KUM1 071220Z 01024G29KT M03/M03 A3041 RMK A01 T10251034  RH  094%=      5-min Rain = 0
KUM1 071221Z 01027KT M03/M04 A3041 RMK A01 T10251035  RH  093%=      5-min Rain = 0
KUM1 071222Z 02024G29KT M03/M04 A304 RMK A01 T10251035  RH  093%=      5-min Rain = 0
KUM1 071223Z 02023KT M03/M04 A3041 RMK A01 T10261035  RH  093%=      5-min Rain = 0
KUM1 071224Z 02026KT M03/M04 A304 RMK A01 T10251035  RH  093%=      5-min Rain = 0
KUM1 071225Z 01023KT M03/M04 A304 RMK A01 T10251036  RH  093%=      5-min Rain = 0
KUM1 071226Z 01021G27KT M03/M04 A304 RMK A01 T10251035  RH  093%=      5-min Rain = 0
KUM1 071227Z 02026KT M03/M04 A3041 RMK A01 T10251035  RH  093%=      5-min Rain = 0
KUM1 071228Z 01022KT M03/M04 A3041 RMK A01 T10251035  RH  093%=      5-min Rain = 0
KUM1 071229Z 02024KT M03/M04 A3041 RMK A01 T10251035  RH  093%=      5-min Rain = 0
KUM1 071230Z 01022KT M03/M04 A3041 RMK A01 T10251036  RH  092%=      5-min Rain = 0
KUM1 071231Z 01021G26KT M03/M04 A3041 RMK A01 T10251036  RH  092%=      5-min Rain = 0
KUM1 071232Z 02022KT M03/M04 A3041 RMK A01 T10251036  RH  092%=      5-min Rain = 0
KUM1 071233Z 02025KT M02/M04 A3041 RMK A01 T10241035  RH  092%=      5-min Rain = 0
KUM1 071234Z 02025KT M03/M04 A3042 RMK A01 T10251036  RH  092%=      5-min Rain = 0
KUM1 071235Z 02021KT M02/M04 A3042 RMK A01 T10241036  RH  092%=      5-min Rain = 0
KUM1 071236Z 02020KT M02/M04 A3042 RMK A01 T10241035  RH  092%=      5-min Rain = 0
KUM1 071237Z 02022KT M03/M04 A3042 RMK A01 T10251035  RH  093%=      5-min Rain = 0
KUM1 071238Z 02022KT M03/M04 A3042 RMK A01 T10251035  RH  093%=      5-min Rain = 0
KUM1 071239Z 01022KT M03/M04 A3041 RMK A01 T10251035  RH  093%=      5-min Rain = 0
KUM1 071240Z 02024KT M03/M04 A3042 RMK A01 T10251035  RH  093%=      5-min Rain = 0
KUM1 071241Z 02024KT M03/M04 A3041 RMK A01 T10251035  RH  093%=      5-min Rain = 0
KUM1 071242Z 02023KT M03/M04 A3042 RMK A01 T10251035  RH  093%=      5-min Rain = 0
KUM1 071243Z 02022KT M03/M03 A3042 RMK A01 T10251034  RH  093%=      5-min Rain = 0
KUM1 071244Z 02019KT M03/M03 A3042 RMK A01 T10251034  RH  094%=      5-min Rain = 0
KUM1 071245Z 02019KT M03/M03 A3042 RMK A01 T10251034  RH  094%=      5-min Rain = 0
KUM1 071246Z 02022KT M03/M03 A3042 RMK A01 T10251033  RH  094%=      5-min Rain = 0
KUM1 071247Z 02021KT M03/M03 A3042 RMK A01 T10251033  RH  094%=      5-min Rain = 0
KUM1 071248Z 02019KT M03/M03 A3042 RMK A01 T10251033  RH  094%=      5-min Rain = 0
KUM1 071249Z 01016KT M03/M03 A3042 RMK A01 T10251032  RH  095%=      5-min Rain = 0
KUM1 071250Z 02018G23KT M02/M03 A3042 RMK A01 T10241032  RH  095%=      5-min Rain = 0
KUM1 071251Z 02020KT M02/M03 A3042 RMK A01 T10241031  RH  095%=      5-min Rain = 0
KUM1 071252Z 02025KT M02/M03 A3042 RMK A01 T10241031  RH  095%=      5-min Rain = 0
KUM1 071253Z 01023KT M02/M03 A3042 RMK A01 T10241032  RH  095%=      5-min Rain = 0
KUM1 071254Z 01021KT M03/M03 A3042 RMK A01 T10251032  RH  095%=      5-min Rain = 0
KUM1 071255Z 02023KT M03/M03 A3042 RMK A01 T10251032  RH  095%=      5-min Rain = 0
KUM1 071256Z 02023G28KT M02/M03 A3042 RMK A01 T10241032  RH  095%=      5-min Rain = 0
KUM1 071257Z 02023KT M03/M03 A3042 RMK A01 T10251032  RH  094%=      5-min Rain = 0
KUM1 071258Z 03022KT M03/M03 A3042 RMK A01 T10251033  RH  094%=      5-min Rain = 0
KUM1 071259Z 02021G26KT M03/M03 A3042 RMK A01 T10251033  RH  094%=      5-min Rain = 0
KUM1 071300Z 03018KT M03/M03 A3042 RMK A01 T10251033  RH  095%=      5-min Rain = 0
KUM1 071301Z 03020KT M03/M03 A3042 RMK A01 T10251032  RH  095%=      5-min Rain = 0
KUM1 071302Z 02019KT M03/M03 A3042 RMK A01 T10251032  RH  095%=      5-min Rain = 0
KUM1 071303Z 02016KT M02/M03 A3042 RMK A01 T10241031  RH  095%=      5-min Rain = 0
KUM1 071304Z 02017KT M02/M03 A3042 RMK A01 T10241031  RH  095%=      5-min Rain = 0
KUM1 071305Z 02015KT M03/M03 A3042 RMK A01 T10251031  RH  095%=      5-min Rain = 0
KUM1 071306Z 02018KT M02/M03 A3042 RMK A01 T10241030  RH  096%=      5-min Rain = 0
KUM1 071307Z 02018KT M02/M03 A3042 RMK A01 T10241030  RH  096%=      5-min Rain = 0
KUM1 071308Z 02018KT M02/M03 A3042 RMK A01 T10241030  RH  096%=      5-min Rain = 0
KUM1 071309Z 02021KT M02/M03 A3042 RMK A01 T10241030  RH  096%=      5-min Rain = 0
KUM1 071310Z 02017G22KT M02/M03 A3042 RMK A01 T10241030  RH  096%=      5-min Rain = 0
KUM1 071311Z 02015KT M02/M03 A3042 RMK A01 T10241030  RH  096%=      5-min Rain = 0
KUM1 071312Z 02016KT M02/M03 A3043 RMK A01 T10241030  RH  096%=      5-min Rain = 0
KUM1 071313Z 02017KT M02/M03 A3043 RMK A01 T10241030  RH  096%=      5-min Rain = 0
KUM1 071314Z 02017KT M02/M03 A3043 RMK A01 T10241030  RH  096%=      5-min Rain = 0
KUM1 071315Z 02020KT M02/M03 A3043 RMK A01 T10241030  RH  096%=      5-min Rain = 0
KUM1 071316Z 02020KT M02/M03 A3043 RMK A01 T10241030  RH  096%=      5-min Rain = 0
KUM1 071317Z 02019KT M02/M03 A3042 RMK A01 T10241030  RH  096%=      5-min Rain = 0
KUM1 071318Z 02018KT M02/M03 A3042 RMK A01 T10241030  RH  096%=      5-min Rain = 0
KUM1 071319Z 02017KT M02/M03 A3042 RMK A01 T10241030  RH  096%=      5-min Rain = 0
KUM1 071320Z 02019KT M02/M03 A3042 RMK A01 T10241030  RH  096%=      5-min Rain = 0
KUM1 071321Z 01019KT M02/M03 A3042 RMK A01 T10241029  RH  096%=      5-min Rain = 0
KUM1 071322Z 02020KT M02/M03 A3042 RMK A01 T10241030  RH  096%=      5-min Rain = 0
KUM1 071323Z 03021KT M02/M03 A3042 RMK A01 T10241030  RH  096%=      5-min Rain = 0
KUM1 071324Z 02021KT M02/M03 A3042 RMK A01 T10241030  RH  096%=      5-min Rain = 0
KUM1 071325Z 02019KT M03/M03 A3041 RMK A01 T10251031  RH  095%=      5-min Rain = 0
KUM1 071326Z 02022KT M03/M03 A3041 RMK A01 T10251031  RH  095%=      5-min Rain = 0
KUM1 071327Z 02023KT M03/M03 A3041 RMK A01 T10251032  RH  095%=      5-min Rain = 0
KUM1 071328Z 02024KT M03/M03 A3041 RMK A01 T10251033  RH  095%=      5-min Rain = 0
KUM1 071329Z 02025KT M03/M03 A3041 RMK A01 T10251033  RH  094%=      5-min Rain = 0
KUM1 071330Z 02020KT M03/M03 A3041 RMK A01 T10261034  RH  094%=      5-min Rain = 0
KUM1 071331Z 02024KT M03/M03 A3041 RMK A01 T10261034  RH  094%=      5-min Rain = 0
KUM1 071332Z 02024KT M03/M03 A3041 RMK A01 T10261034  RH  094%=      5-min Rain = 0
KUM1 071333Z 02023KT M03/M03 A3041 RMK A01 T10261034  RH  094%=      5-min Rain = 0
KUM1 071334Z 02022KT M03/M03 A3042 RMK A01 T10261034  RH  094%=      5-min Rain = 0
KUM1 071335Z 02020KT M03/M03 A3042 RMK A01 T10261034  RH  094%=      5-min Rain = 0
KUM1 071336Z 02021G27KT M03/M03 A3042 RMK A01 T10251033  RH  094%=      5-min Rain = 0
KUM1 071337Z 02022KT M03/M03 A3042 RMK A01 T10251033  RH  094%=      5-min Rain = 0
KUM1 071338Z 01021KT M03/M03 A3043 RMK A01 T10261034  RH  094%=      5-min Rain = 0
KUM1 071339Z 01023KT M03/M04 A3043 RMK A01 T10261035  RH  094%=      5-min Rain = 0
KUM1 071340Z 02023KT M03/M04 A3043 RMK A01 T10261035  RH  094%=      5-min Rain = 0
KUM1 071341Z 02023KT M03/M04 A3043 RMK A01 T10271035  RH  094%=      5-min Rain = 0
KUM1 071342Z 01024KT M03/M04 A3043 RMK A01 T10271035  RH  094%=      5-min Rain = 0
KUM1 071343Z 02022KT M03/M04 A3043 RMK A01 T10271035  RH  094%=      5-min Rain = 0
KUM1 071344Z 02021KT M03/M04 A3043 RMK A01 T10271035  RH  094%=      5-min Rain = 0
KUM1 071345Z 02021KT M03/M04 A3043 RMK A01 T10271035  RH  094%=      5-min Rain = 0
KUM1 071346Z 01020KT M03/M04 A3043 RMK A01 T10271035  RH  094%=      5-min Rain = 0
KUM1 071347Z 01022KT M03/M04 A3043 RMK A01 T10271035  RH  094%=      5-min Rain = 0
KUM1 071348Z 01021G26KT M03/M04 A3043 RMK A01 T10271035  RH  094%=      5-min Rain = 0
KUM1 071349Z 02021KT M03/M04 A3043 RMK A01 T10271036  RH  094%=      5-min Rain = 0
KUM1 071350Z 02021KT M03/M04 A3043 RMK A01 T10281036  RH  094%=      5-min Rain = 0
KUM1 071351Z 02021KT M03/M04 A3043 RMK A01 T10271036  RH  094%=      5-min Rain = 0
KUM1 071352Z 02019KT M03/M04 A3043 RMK A01 T10271036  RH  094%=      5-min Rain = 0
KUM1 071353Z 01019KT M03/M04 A3043 RMK A01 T10271036  RH  094%=      5-min Rain = 0
KUM1 071354Z 01018KT M03/M04 A3043 RMK A01 T10271035  RH  094%=      5-min Rain = 0
KUM1 071355Z 02020KT M03/M04 A3043 RMK A01 T10271035  RH  094%=      5-min Rain = 0
KUM1 071356Z 02021KT M03/M04 A3043 RMK A01 T10271035  RH  094%=      5-min Rain = 0
KUM1 071357Z 01021KT M03/M04 A3043 RMK A01 T10271035  RH  094%=      5-min Rain = 0
KUM1 071358Z 01021KT M03/M04 A3043 RMK A01 T10271035  RH  094%=      5-min Rain = 0
KUM1 071359Z 01020KT M03/M04 A3043 RMK A01 T10271035  RH  094%=      5-min Rain = 0
KUM1 071400Z 01022KT M03/M04 A3044 RMK A01 T10271035  RH  094%=      5-min Rain = 0
KUM1 071401Z 02022G27KT M03/M04 A3044 RMK A01 T10271035  RH  094%=      5-min Rain = 0
KUM1 071402Z 02023KT M03/M04 A3044 RMK A01 T10271035  RH  095%=      5-min Rain = 0
KUM1 071403Z 02024KT M03/M04 A3044 RMK A01 T10271035  RH  094%=      5-min Rain = 0
KUM1 071404Z 02022KT M03/M04 A3044 RMK A01 T10271035  RH  094%=      5-min Rain = 0
KUM1 071405Z 02022KT M03/M04 A3044 RMK A01 T10271035  RH  094%=      5-min Rain = 0
KUM1 071406Z 02019KT M03/M04 A3044 RMK A01 T10271035  RH  094%=      5-min Rain = 0
KUM1 071407Z 02019KT M03/M04 A3044 RMK A01 T10271035  RH  094%=      5-min Rain = 0
KUM1 071408Z 02019KT M03/M04 A3044 RMK A01 T10271035  RH  095%=      5-min Rain = 0
KUM1 071409Z 01018KT M03/M03 A3044 RMK A01 T10271034  RH  095%=      5-min Rain = 0
KUM1 071410Z 01020KT M03/M03 A3044 RMK A01 T10271034  RH  095%=      5-min Rain = 0
KUM1 071411Z 02024KT M03/M03 A3044 RMK A01 T10261034  RH  095%=      5-min Rain = 0
KUM1 071412Z 02022KT M03/M03 A3044 RMK A01 T10271034  RH  095%=      5-min Rain = 0
KUM1 071413Z 02022KT M03/M03 A3044 RMK A01 T10271034  RH  095%=      5-min Rain = 0
KUM1 071414Z 02021KT M03/M03 A3044 RMK A01 T10271034  RH  095%=      5-min Rain = 0
KUM1 071415Z 02019KT M03/M03 A3044 RMK A01 T10261034  RH  095%=      5-min Rain = 0
KUM1 071416Z 02019G25KT M03/M03 A3044 RMK A01 T10261033  RH  095%=      5-min Rain = 0
KUM1 071417Z 01021KT M03/M03 A3044 RMK A01 T10261034  RH  095%=      5-min Rain = 0
KUM1 071418Z 01018G23KT M03/M03 A3044 RMK A01 T10261034  RH  095%=      5-min Rain = 0
KUM1 071419Z 01020KT M03/M03 A3045 RMK A01 T10261033  RH  095%=      5-min Rain = 0
KUM1 071420Z 01021KT M03/M03 A3045 RMK A01 T10261033  RH  095%=      5-min Rain = 0
KUM1 071421Z 01021KT M03/M03 A3045 RMK A01 T10261033  RH  095%=      5-min Rain = 0
KUM1 071422Z 01021KT M03/M03 A3045 RMK A01 T10261034  RH  095%=      5-min Rain = 0
KUM1 071423Z 01021KT M03/M03 A3045 RMK A01 T10271034  RH  095%=      5-min Rain = 0
KUM1 071424Z 01021KT M03/M03 A3045 RMK A01 T10261034  RH  095%=      5-min Rain = 0
KUM1 071425Z 01021G27KT M03/M03 A3045 RMK A01 T10271034  RH  095%=      5-min Rain = 0
KUM1 071426Z 02022KT M03/M03 A3045 RMK A01 T10271034  RH  095%=      5-min Rain = 0
KUM1 071427Z 01020KT M03/M03 A3045 RMK A01 T10271034  RH  095%=      5-min Rain = 0
KUM1 071428Z 01019KT M03/M03 A3045 RMK A01 T10271034  RH  095%=      5-min Rain = 0
KUM1 071429Z 01020KT M03/M03 A3045 RMK A01 T10271033  RH  095%=      5-min Rain = 0
KUM1 071430Z 01018KT M03/M03 A3045 RMK A01 T10261033  RH  095%=      5-min Rain = 0
KUM1 071431Z 01019KT M03/M03 A3045 RMK A01 T10261032  RH  096%=      5-min Rain = 0
KUM1 071432Z 01018KT M03/M03 A3045 RMK A01 T10261032  RH  096%=      5-min Rain = 0
KUM1 071433Z 01020KT M03/M03 A3045 RMK A01 T10261031  RH  096%=      5-min Rain = 0
KUM1 071434Z 01021KT M03/M03 A3045 RMK A01 T10261031  RH  096%=      5-min Rain = 0
KUM1 071435Z 01021KT M03/M03 A3045 RMK A01 T10261032  RH  096%=      5-min Rain = 0
KUM1 071436Z 01020KT M03/M03 A3045 RMK A01 T10261031  RH  096%=      5-min Rain = 0
KUM1 071437Z 01018KT M03/M03 A3045 RMK A01 T10261031  RH  096%=      5-min Rain = 0
KUM1 071438Z 01024KT M03/M03 A3045 RMK A01 T10261031  RH  096%=      5-min Rain = 0
KUM1 071439Z 01022KT M03/M03 A3046 RMK A01 T10271033  RH  096%=      5-min Rain = 0
KUM1 071440Z 01022KT M03/M03 A3046 RMK A01 T10281034  RH  096%=      5-min Rain = 0
KUM1 071441Z 01022KT M03/M03 A3046 RMK A01 T10281034  RH  096%=      5-min Rain = 0
KUM1 071442Z 01022KT M03/M03 A3046 RMK A01 T10281034  RH  095%=      5-min Rain = 0
KUM1 071443Z 01024KT M03/M04 A3046 RMK A01 T10291035  RH  095%=      5-min Rain = 0
KUM1 071444Z 01022KT M03/M04 A3046 RMK A01 T10291035  RH  095%=      5-min Rain = 0
KUM1 071445Z 01019KT M03/M04 A3046 RMK A01 T10291035  RH  095%=      5-min Rain = 0
KUM1 071446Z 01020KT M03/M04 A3046 RMK A01 T10281035  RH  095%=      5-min Rain = 0
KUM1 071447Z 01024KT M03/M03 A3046 RMK A01 T10281034  RH  095%=      5-min Rain = 0
KUM1 071448Z 01023KT M03/M04 A3046 RMK A01 T10281035  RH  095%=      5-min Rain = 0
KUM1 071449Z 01022KT M03/M04 A3046 RMK A01 T10281035  RH  095%=      5-min Rain = 0
KUM1 071450Z 01024KT M03/M04 A3046 RMK A01 T10281035  RH  095%=      5-min Rain = 0
KUM1 071451Z 01024KT M03/M04 A3046 RMK A01 T10281035  RH  095%=      5-min Rain = 0
KUM1 071452Z 01020KT M03/M04 A3046 RMK A01 T10281035  RH  095%=      5-min Rain = 0
KUM1 071453Z 02018KT M03/M04 A3046 RMK A01 T10281035  RH  095%=      5-min Rain = 0
KUM1 071454Z 02023KT M03/M04 A3046 RMK A01 T10281035  RH  095%=      5-min Rain = 0
KUM1 071455Z 02024KT M03/M04 A3046 RMK A01 T10281035  RH  095%=      5-min Rain = 0
KUM1 071456Z 02022G27KT M03/M04 A3046 RMK A01 T10281036  RH  095%=      5-min Rain = 0
KUM1 071457Z 02021KT M03/M04 A3046 RMK A01 T10291036  RH  094%=      5-min Rain = 0
KUM1 071458Z 02024KT M03/M04 A3046 RMK A01 T10291036  RH  094%=      5-min Rain = 0
KUM1 071459Z 02021KT M03/M04 A3046 RMK A01 T10291037  RH  094%=      5-min Rain = 0
KUM1 071500Z 02020KT M03/M04 A3046 RMK A01 T10281036  RH  094%=      5-min Rain = 0
KUM1 071501Z 02016G21KT M03/M04 A3046 RMK A01 T10281036  RH  094%=      5-min Rain = 0
KUM1 071502Z 02018KT M03/M04 A3047 RMK A01 T10271035  RH  095%=      5-min Rain = 0
KUM1 071503Z 02018KT M03/M03 A3047 RMK A01 T10271034  RH  095%=      5-min Rain = 0
KUM1 071504Z 02018KT M03/M04 A3047 RMK A01 T10281035  RH  095%=      5-min Rain = 0
KUM1 071505Z 02014KT M03/M03 A3047 RMK A01 T10271034  RH  095%=      5-min Rain = 0
KUM1 071506Z 01014G20KT M03/M03 A3047 RMK A01 T10271034  RH  095%=      5-min Rain = 0
KUM1 071507Z 01019KT M03/M03 A3047 RMK A01 T10281034  RH  095%=      5-min Rain = 0
KUM1 071508Z 02018KT M03/M03 A3047 RMK A01 T10281034  RH  095%=      5-min Rain = 0
KUM1 071509Z 01017KT M03/M03 A3047 RMK A01 T10271034  RH  095%=      5-min Rain = 0
KUM1 071510Z 02020KT M03/M03 A3047 RMK A01 T10281034  RH  095%=      5-min Rain = 0
KUM1 071511Z 02019KT M03/M03 A3047 RMK A01 T10281034  RH  095%=      5-min Rain = 0
KUM1 071512Z 02018KT M03/M03 A3047 RMK A01 T10281034  RH  095%=      5-min Rain = 0
KUM1 071513Z 02017KT M03/M03 A3047 RMK A01 T10281034  RH  095%=      5-min Rain = 0
KUM1 071514Z 02018KT M03/M03 A3048 RMK A01 T10281034  RH  095%=      5-min Rain = 0
KUM1 071515Z 02017KT M03/M03 A3048 RMK A01 T10281034  RH  095%=      5-min Rain = 0
KUM1 071516Z 01015KT M03/M03 A3048 RMK A01 T10281034  RH  095%=      5-min Rain = 0
KUM1 071517Z 01018KT M03/M03 A3048 RMK A01 T10271034  RH  096%=      5-min Rain = 0
KUM1 071518Z 01016KT M03/M03 A3048 RMK A01 T10271034  RH  096%=      5-min Rain = 0
KUM1 071519Z 02018KT M03/M03 A3048 RMK A01 T10271034  RH  096%=      5-min Rain = 0
KUM1 071520Z 02018KT M03/M03 A3048 RMK A01 T10271034  RH  095%=      5-min Rain = 0
KUM1 071521Z 02019KT M03/M03 A3048 RMK A01 T10281034  RH  095%=      5-min Rain = 0
KUM1 071522Z 02018KT M03/M03 A3048 RMK A01 T10281034  RH  095%=      5-min Rain = 0
KUM1 071523Z 01017KT M03/M03 A3048 RMK A01 T10281034  RH  095%=      5-min Rain = 0
KUM1 071524Z 02018KT M03/M04 A3048 RMK A01 T10281035  RH  095%=      5-min Rain = 0
KUM1 071525Z 02018KT M03/M04 A3048 RMK A01 T10281035  RH  095%=      5-min Rain = 0
KUM1 071526Z 02016KT M03/M04 A3048 RMK A01 T10281035  RH  095%=      5-min Rain = 0
KUM1 071527Z 02018KT M03/M04 A3048 RMK A01 T10281035  RH  095%=      5-min Rain = 0
KUM1 071528Z 02018KT M03/M04 A3048 RMK A01 T10281035  RH  095%=      5-min Rain = 0
KUM1 071529Z 02018KT M03/M04 A3048 RMK A01 T10281035  RH  095%=      5-min Rain = 0
KUM1 071530Z 02017KT M03/M04 A3048 RMK A01 T10281035  RH  095%=      5-min Rain = 0
KUM1 071531Z 02019KT M03/M04 A3048 RMK A01 T10281035  RH  095%=      5-min Rain = 0
KUM1 071532Z 02019KT M03/M04 A3048 RMK A01 T10281035  RH  095%=      5-min Rain = 0
KUM1 071533Z 01020KT M03/M04 A3048 RMK A01 T10281035  RH  095%=      5-min Rain = 0
KUM1 071534Z 02018KT M03/M04 A3048 RMK A01 T10281035  RH  095%=      5-min Rain = 0
KUM1 071535Z 01017KT M03/M04 A3048 RMK A01 T10281035  RH  095%=      5-min Rain = 0
KUM1 071536Z 01020KT M03/M04 A3048 RMK A01 T10281035  RH  095%=      5-min Rain = 0
KUM1 071537Z 01019KT M03/M04 A3048 RMK A01 T10281035  RH  095%=      5-min Rain = 0
KUM1 071538Z 02022KT M03/M04 A3048 RMK A01 T10281036  RH  095%=      5-min Rain = 0
KUM1 071539Z 02022KT M03/M04 A3047 RMK A01 T10281036  RH  095%=      5-min Rain = 0
KUM1 071540Z 02019KT M03/M04 A3047 RMK A01 T10291036  RH  095%=      5-min Rain = 0
KUM1 071541Z 02019KT M03/M04 A3047 RMK A01 T10291036  RH  095%=      5-min Rain = 0
KUM1 071542Z 01020KT M03/M04 A3047 RMK A01 T10291036  RH  095%=      5-min Rain = 0
KUM1 071543Z 01018KT M03/M04 A3048 RMK A01 T10291036  RH  095%=      5-min Rain = 0
KUM1 071544Z 01019KT M03/M04 A3048 RMK A01 T10281036  RH  095%=      5-min Rain = 0
KUM1 071545Z 02017KT M03/M04 A3048 RMK A01 T10291036  RH  095%=      5-min Rain = 0
KUM1 071546Z 02018KT M03/M04 A3048 RMK A01 T10291036  RH  095%=      5-min Rain = 0
KUM1 071547Z 01020KT M03/M04 A3048 RMK A01 T10281035  RH  095%=      5-min Rain = 0
KUM1 071548Z 02017KT M03/M04 A3048 RMK A01 T10291036  RH  095%=      5-min Rain = 0
KUM1 071549Z 02014KT M03/M04 A3048 RMK A01 T10281035  RH  095%=      5-min Rain = 0
KUM1 071550Z 02019KT M03/M04 A3048 RMK A01 T10281035  RH  095%=      5-min Rain = 0
KUM1 071551Z 02017KT M03/M04 A3048 RMK A01 T10281036  RH  095%=      5-min Rain = 0
KUM1 071552Z 02015KT M03/M04 A3048 RMK A01 T10281036  RH  094%=      5-min Rain = 0
KUM1 071553Z 02018KT M03/M04 A3048 RMK A01 T10281036  RH  094%=      5-min Rain = 0
KUM1 071554Z 01016KT M03/M04 A3048 RMK A01 T10281036  RH  094%=      5-min Rain = 0
KUM1 071555Z 02016KT M03/M04 A3048 RMK A01 T10281036  RH  094%=      5-min Rain = 0
KUM1 071556Z 02014KT M03/M04 A3048 RMK A01 T10281036  RH  094%=      5-min Rain = 0
KUM1 071557Z 02015KT M03/M04 A3048 RMK A01 T10281035  RH  095%=      5-min Rain = 0
KUM1 071558Z 01015KT M03/M04 A3048 RMK A01 T10281035  RH  095%=      5-min Rain = 0
KUM1 071559Z 02015KT M03/M04 A3048 RMK A01 T10281035  RH  095%=      5-min Rain = 0
KUM1 071600Z 02014KT M03/M04 A3048 RMK A01 T10281035  RH  094%=      5-min Rain = 0
KUM1 071601Z 02013G19KT M03/M04 A3048 RMK A01 T10281035  RH  094%=      5-min Rain = 0
KUM1 071602Z 02015KT M03/M04 A3048 RMK A01 T10271035  RH  094%=      5-min Rain = 0
KUM1 071603Z 02016KT M03/M04 A3048 RMK A01 T10271035  RH  094%=      5-min Rain = 0
KUM1 071604Z 02016KT M03/M04 A3048 RMK A01 T10281036  RH  094%=      5-min Rain = 0
KUM1 071605Z 02018KT M03/M04 A3048 RMK A01 T10271035  RH  094%=      5-min Rain = 0
KUM1 071606Z 02018KT M03/M04 A3048 RMK A01 T10281036  RH  094%=      5-min Rain = 0
KUM1 071607Z 02018KT M03/M04 A3048 RMK A01 T10281036  RH  094%=      5-min Rain = 0
KUM1 071608Z 02019KT M03/M04 A3048 RMK A01 T10281036  RH  094%=      5-min Rain = 0
KUM1 071609Z 02018KT M03/M04 A3048 RMK A01 T10281037  RH  094%=      5-min Rain = 0
KUM1 071610Z 02018KT M03/M04 A3048 RMK A01 T10281037  RH  093%=      5-min Rain = 0
KUM1 071611Z 02019KT M03/M04 A3048 RMK A01 T10281037  RH  093%=      5-min Rain = 0
KUM1 071612Z 02016KT M03/M04 A3048 RMK A01 T10281037  RH  093%=      5-min Rain = 0
KUM1 071613Z 03017KT M03/M04 A3048 RMK A01 T10281037  RH  094%=      5-min Rain = 0
KUM1 071614Z 02016G21KT M03/M04 A3048 RMK A01 T10281037  RH  094%=      5-min Rain = 0
KUM1 071615Z 02016KT M03/M04 A3048 RMK A01 T10281037  RH  094%=      5-min Rain = 0
KUM1 071616Z 03016KT M03/M04 A3048 RMK A01 T10281037  RH  094%=      5-min Rain = 0
KUM1 071617Z 03016KT M03/M04 A3048 RMK A01 T10281036  RH  094%=      5-min Rain = 0
KUM1 071618Z 02015KT M03/M04 A3048 RMK A01 T10281037  RH  094%=      5-min Rain = 0
KUM1 071619Z 02015KT M03/M04 A3048 RMK A01 T10281036  RH  094%=      5-min Rain = 0
KUM1 071620Z 02012KT M03/M04 A3048 RMK A01 T10281036  RH  094%=      5-min Rain = 0
KUM1 071621Z 01015G21KT M03/M04 A3049 RMK A01 T10271035  RH  094%=      5-min Rain = 0
KUM1 071622Z 01017KT M03/M04 A3049 RMK A01 T10271035  RH  094%=      5-min Rain = 0
KUM1 071623Z 01016KT M03/M04 A3049 RMK A01 T10271036  RH  094%=      5-min Rain = 0
KUM1 071624Z 02017KT M03/M04 A3049 RMK A01 T10271036  RH  094%=      5-min Rain = 0
KUM1 071625Z 02018KT M03/M04 A3049 RMK A01 T10281036  RH  094%=      5-min Rain = 0
KUM1 071626Z 01019KT M03/M04 A3049 RMK A01 T10281036  RH  094%=      5-min Rain = 0
KUM1 071627Z 01017KT M03/M04 A3049 RMK A01 T10281036  RH  094%=      5-min Rain = 0
KUM1 071628Z 01018KT M03/M04 A3049 RMK A01 T10281036  RH  094%=      5-min Rain = 0
KUM1 071629Z 01016KT M03/M04 A3049 RMK A01 T10271036  RH  094%=      5-min Rain = 0
KUM1 071630Z 01017KT M03/M04 A3049 RMK A01 T10281036  RH  094%=      5-min Rain = 0
KUM1 071631Z 02017KT M03/M04 A3049 RMK A01 T10281036  RH  094%=      5-min Rain = 0
KUM1 071632Z 02017KT M03/M04 A3049 RMK A01 T10281037  RH  094%=      5-min Rain = 0
KUM1 071633Z 02016KT M03/M04 A3049 RMK A01 T10281037  RH  094%=      5-min Rain = 0
KUM1 071634Z 01016KT M03/M04 A3049 RMK A01 T10281036  RH  094%=      5-min Rain = 0
KUM1 071635Z 02016KT M03/M04 A3049 RMK A01 T10281036  RH  094%=      5-min Rain = 0
KUM1 071636Z 01016KT M03/M04 A3049 RMK A01 T10281036  RH  094%=      5-min Rain = 0
KUM1 071637Z 02015KT M03/M04 A3049 RMK A01 T10281036  RH  094%=      5-min Rain = 0
KUM1 071638Z 01015KT M03/M04 A3049 RMK A01 T10281036  RH  094%=      5-min Rain = 0
KUM1 071639Z 02016KT M03/M04 A3049 RMK A01 T10281036  RH  094%=      5-min Rain = 0
KUM1 071640Z 02016KT M03/M04 A3049 RMK A01 T10281036  RH  094%=      5-min Rain = 0
KUM1 071641Z 02015KT M03/M04 A305 RMK A01 T10281036  RH  094%=      5-min Rain = 0
KUM1 071642Z 02018KT M03/M04 A305 RMK A01 T10281036  RH  094%=      5-min Rain = 0
KUM1 071643Z 02013KT M03/M04 A3049 RMK A01 T10281036  RH  094%=      5-min Rain = 0
KUM1 071644Z 01015KT M03/M04 A305 RMK A01 T10271035  RH  094%=      5-min Rain = 0
KUM1 071645Z 02015KT M03/M04 A305 RMK A01 T10271035  RH  094%=      5-min Rain = 0
KUM1 071646Z 02016KT M03/M04 A305 RMK A01 T10271035  RH  094%=      5-min Rain = 0
KUM1 071647Z 01015KT M03/M04 A305 RMK A01 T10271035  RH  094%=      5-min Rain = 0
KUM1 071648Z 02015KT M03/M04 A305 RMK A01 T10271035  RH  094%=      5-min Rain = 0
KUM1 071649Z 02015KT M03/M04 A305 RMK A01 T10271036  RH  094%=      5-min Rain = 0
KUM1 071650Z 01015KT M03/M04 A305 RMK A01 T10271035  RH  094%=      5-min Rain = 0
KUM1 071651Z 02012KT M03/M04 A305 RMK A01 T10271035  RH  094%=      5-min Rain = 0
KUM1 071652Z 02014KT M03/M03 A305 RMK A01 T10271034  RH  094%=      5-min Rain = 0
KUM1 071653Z 02013KT M03/M03 A305 RMK A01 T10261034  RH  094%=      5-min Rain = 0
KUM1 071654Z 02013KT M03/M04 A305 RMK A01 T10271035  RH  094%=      5-min Rain = 0
KUM1 071655Z 02013KT M03/M04 A305 RMK A01 T10271035  RH  094%=      5-min Rain = 0
KUM1 071656Z 01015KT M03/M03 A305 RMK A01 T10261034  RH  094%=      5-min Rain = 0
KUM1 071657Z 01015KT M03/M04 A305 RMK A01 T10261035  RH  094%=      5-min Rain = 0
KUM1 071658Z 02014KT M03/M04 A305 RMK A01 T10271035  RH  094%=      5-min Rain = 0
KUM1 071659Z 02014KT M03/M04 A305 RMK A01 T10271035  RH  094%=      5-min Rain = 0
KUM1 071700Z 02012KT M03/M04 A305 RMK A01 T10271035  RH  094%=      5-min Rain = 0
KUM1 071701Z 02013KT M03/M03 A305 RMK A01 T10261034  RH  094%=      5-min Rain = 0
KUM1 071702Z 01012KT M03/M03 A305 RMK A01 T10271034  RH  094%=      5-min Rain = 0
KUM1 071703Z 01015KT M03/M04 A305 RMK A01 T10271035  RH  094%=      5-min Rain = 0
KUM1 071704Z 02014KT M03/M04 A305 RMK A01 T10271035  RH  094%=      5-min Rain = 0
KUM1 071705Z 02014KT M03/M04 A305 RMK A01 T10271035  RH  094%=      5-min Rain = 0
KUM1 071706Z 02014KT M03/M04 A305 RMK A01 T10271035  RH  095%=      5-min Rain = 0
KUM1 071707Z 02017KT M03/M04 A305 RMK A01 T10271035  RH  094%=      5-min Rain = 0
KUM1 071708Z 02016KT M03/M04 A305 RMK A01 T10271036  RH  094%=      5-min Rain = 0
KUM1 071709Z 02016KT M03/M04 A305 RMK A01 T10271036  RH  094%=      5-min Rain = 0
KUM1 071710Z 02018KT M03/M04 A305 RMK A01 T10271036  RH  094%=      5-min Rain = 0
KUM1 071711Z 02015KT M03/M04 A305 RMK A01 T10281037  RH  093%=      5-min Rain = 0
KUM1 071712Z 01013KT M03/M04 A305 RMK A01 T10271036  RH  094%=      5-min Rain = 0
KUM1 071713Z 02015KT M03/M04 A305 RMK A01 T10271035  RH  094%=      5-min Rain = 0
KUM1 071714Z 02015KT M03/M04 A305 RMK A01 T10261035  RH  094%=      5-min Rain = 0
KUM1 071715Z 02017KT M03/M04 A305 RMK A01 T10271036  RH  094%=      5-min Rain = 0
KUM1 071716Z 02017KT M03/M04 A305 RMK A01 T10271036  RH  094%=      5-min Rain = 0
KUM1 071717Z 02017KT M03/M04 A305 RMK A01 T10271037  RH  093%=      5-min Rain = 0
KUM1 071718Z 02016KT M03/M04 A305 RMK A01 T10281037  RH  093%=      5-min Rain = 0
KUM1 071719Z 02017KT M03/M04 A305 RMK A01 T10281037  RH  093%=      5-min Rain = 0
KUM1 071720Z 02015KT M03/M04 A305 RMK A01 T10281038  RH  093%=      5-min Rain = 0
KUM1 071721Z 02015KT M03/M04 A305 RMK A01 T10271037  RH  093%=      5-min Rain = 0
KUM1 071722Z 02014KT M03/M04 A305 RMK A01 T10271036  RH  094%=      5-min Rain = 0
KUM1 071723Z 02015KT M03/M04 A3051 RMK A01 T10271036  RH  094%=      5-min Rain = 0
KUM1 071724Z 02015KT M03/M04 A3051 RMK A01 T10271036  RH  094%=      5-min Rain = 0
KUM1 071725Z 02013KT M03/M04 A3051 RMK A01 T10281037  RH  093%=      5-min Rain = 0
KUM1 071726Z 02015KT M03/M04 A3051 RMK A01 T10271036  RH  094%=      5-min Rain = 0
KUM1 071727Z 01013KT M03/M04 A3051 RMK A01 T10271036  RH  094%=      5-min Rain = 0
KUM1 071728Z 02013KT M03/M04 A305 RMK A01 T10271036  RH  094%=      5-min Rain = 0
KUM1 071729Z 01012KT M03/M04 A305 RMK A01 T10271036  RH  094%=      5-min Rain = 0
KUM1 071730Z 01014KT M03/M04 A305 RMK A01 T10271036  RH  094%=      5-min Rain = 0
KUM1 071731Z 01014KT M03/M04 A305 RMK A01 T10271036  RH  094%=      5-min Rain = 0
KUM1 071732Z 01013KT M03/M04 A305 RMK A01 T10271036  RH  094%=      5-min Rain = 0
KUM1 071733Z 02011KT M03/M04 A305 RMK A01 T10271035  RH  094%=      5-min Rain = 0
KUM1 071734Z 02013KT M03/M04 A305 RMK A01 T10271035  RH  094%=      5-min Rain = 0
KUM1 071735Z 01012KT M03/M03 A305 RMK A01 T10261034  RH  095%=      5-min Rain = 0
KUM1 071736Z 01014KT M03/M03 A305 RMK A01 T10261034  RH  095%=      5-min Rain = 0
KUM1 071737Z 02013KT M03/M03 A305 RMK A01 T10261034  RH  094%=      5-min Rain = 0
KUM1 071738Z 02012KT M03/M03 A3049 RMK A01 T10261034  RH  094%=      5-min Rain = 0
KUM1 071739Z 02013KT M03/M03 A305 RMK A01 T10261033  RH  095%=      5-min Rain = 0
KUM1 071740Z 02014KT M03/M03 A305 RMK A01 T10261033  RH  095%=      5-min Rain = 0
KUM1 071741Z 02014KT M03/M03 A305 RMK A01 T10251033  RH  094%=      5-min Rain = 0
KUM1 071742Z 02012KT M03/M03 A3049 RMK A01 T10261034  RH  094%=      5-min Rain = 0
KUM1 071743Z 02014KT M03/M03 A3049 RMK A01 T10261034  RH  094%=      5-min Rain = 0
KUM1 071744Z 02013KT M03/M03 A305 RMK A01 T10261034  RH  094%=      5-min Rain = 0
KUM1 071745Z 01014KT M03/M04 A305 RMK A01 T10261035  RH  094%=      5-min Rain = 0
KUM1 071746Z 01012KT M03/M04 A305 RMK A01 T10261035  RH  094%=      5-min Rain = 0
KUM1 071747Z 02011KT M03/M03 A305 RMK A01 T10251033  RH  094%=      5-min Rain = 0
KUM1 071748Z 02014KT M03/M03 A305 RMK A01 T10251033  RH  094%=      5-min Rain = 0
KUM1 071749Z 02014KT M03/M03 A305 RMK A01 T10251034  RH  094%=      5-min Rain = 0
KUM1 071750Z 02014KT M03/M03 A3049 RMK A01 T10251034  RH  094%=      5-min Rain = 0
KUM1 071751Z 02017KT M03/M03 A3049 RMK A01 T10251034  RH  093%=      5-min Rain = 0
KUM1 071752Z 02017KT M03/M04 A3049 RMK A01 T10251035  RH  093%=      5-min Rain = 0
KUM1 071753Z 02015KT M03/M04 A3049 RMK A01 T10251035  RH  093%=      5-min Rain = 0
KUM1 071754Z 01014KT M03/M04 A3049 RMK A01 T10261035  RH  093%=      5-min Rain = 0
KUM1 071755Z 02013KT M03/M04 A3049 RMK A01 T10251035  RH  093%=      5-min Rain = 0
KUM1 071756Z 02014KT M03/M03 A3049 RMK A01 T10251034  RH  093%=      5-min Rain = 0
KUM1 071757Z 02014KT M02/M03 A3049 RMK A01 T10241034  RH  093%=      5-min Rain = 0
KUM1 071758Z 02015KT M02/M03 A3049 RMK A01 T10241034  RH  093%=      5-min Rain = 0
KUM1 071759Z 02013KT M03/M03 A3049 RMK A01 T10251034  RH  093%=      5-min Rain = 0
KUM1 071800Z 02012KT M02/M03 A3049 RMK A01 T10241034  RH  093%=      5-min Rain = 0
KUM1 071801Z 02013KT M02/M03 A3049 RMK A01 T10241033  RH  093%=      5-min Rain = 0
KUM1 071802Z 02013KT M02/M03 A3049 RMK A01 T10241033  RH  093%=      5-min Rain = 0
KUM1 071803Z 02013KT M02/M03 A3049 RMK A01 T10241033  RH  093%=      5-min Rain = 0
KUM1 071804Z 02015KT M02/M03 A3049 RMK A01 T10241033  RH  093%=      5-min Rain = 0
KUM1 071805Z 03016KT M02/M03 A3049 RMK A01 T10241034  RH  093%=      5-min Rain = 0
KUM1 071806Z 03016KT M03/M04 A3049 RMK A01 T10251035  RH  093%=      5-min Rain = 0
KUM1 071807Z 03015KT M03/M04 A3049 RMK A01 T10251035  RH  093%=      5-min Rain = 0
KUM1 071808Z 02014KT M02/M03 A3049 RMK A01 T10241034  RH  093%=      5-min Rain = 0
KUM1 071809Z 03014KT M02/M03 A3049 RMK A01 T10241033  RH  093%=      5-min Rain = 0
KUM1 071810Z 02013KT M02/M03 A3049 RMK A01 T10231033  RH  093%=      5-min Rain = 0
KUM1 071811Z 03013KT M02/M03 A3048 RMK A01 T10231032  RH  093%=      5-min Rain = 0
KUM1 071812Z 03014KT M02/M03 A3048 RMK A01 T10231032  RH  094%=      5-min Rain = 0
KUM1 071813Z 03015KT M02/M03 A3048 RMK A01 T10231031  RH  094%=      5-min Rain = 0
KUM1 071814Z 03015KT M02/M03 A3048 RMK A01 T10231032  RH  094%=      5-min Rain = 0
KUM1 071815Z 03015KT M02/M03 A3048 RMK A01 T10241033  RH  093%=      5-min Rain = 0
KUM1 071816Z 02015KT M02/M03 A3048 RMK A01 T10241033  RH  094%=      5-min Rain = 0
KUM1 071817Z 02015KT M02/M03 A3048 RMK A01 T10241033  RH  094%=      5-min Rain = 0
KUM1 071818Z 02015KT M02/M03 A3048 RMK A01 T10241033  RH  094%=      5-min Rain = 0
KUM1 071819Z 03015KT M02/M03 A3048 RMK A01 T10241033  RH  094%=      5-min Rain = 0
KUM1 071820Z 02016KT M02/M03 A3048 RMK A01 T10241034  RH  093%=      5-min Rain = 0
KUM1 071821Z 02013KT M02/M03 A3048 RMK A01 T10241033  RH  094%=      5-min Rain = 0
KUM1 071822Z 02014KT M02/M03 A3048 RMK A01 T10241033  RH  094%=      5-min Rain = 0
KUM1 071823Z 02011KT M02/M03 A3048 RMK A01 T10231031  RH  094%=      5-min Rain = 0
KUM1 071824Z 02012KT M02/M03 A3048 RMK A01 T10231030  RH  094%=      5-min Rain = 0
KUM1 071825Z 03011KT M02/M03 A3048 RMK A01 T10221030  RH  094%=      5-min Rain = 0
KUM1 071826Z 03013KT M02/M03 A3048 RMK A01 T10221030  RH  094%=      5-min Rain = 0
KUM1 071827Z 02010KT M02/M03 A3048 RMK A01 T10231031  RH  094%=      5-min Rain = 0
KUM1 071828Z 02011KT M02/M03 A3048 RMK A01 T10221029  RH  095%=      5-min Rain = 0
KUM1 071829Z 03011KT M02/M03 A3048 RMK A01 T10221029  RH  095%=      5-min Rain = 0
KUM1 071830Z 03013KT M02/M03 A3048 RMK A01 T10211029  RH  095%=      5-min Rain = 0
KUM1 071831Z 03013KT M02/M03 A3048 RMK A01 T10211029  RH  095%=      5-min Rain = 0
KUM1 071832Z 03011KT M02/M03 A3048 RMK A01 T10211029  RH  095%=      5-min Rain = 0
KUM1 071833Z 02011KT M02/M03 A3048 RMK A01 T10211029  RH  095%=      5-min Rain = 0
KUM1 071834Z 02013KT M02/M03 A3048 RMK A01 T10211028  RH  095%=      5-min Rain = 0
KUM1 071835Z 02012KT M02/M03 A3048 RMK A01 T10211028  RH  095%=      5-min Rain = 0
KUM1 071836Z 02012KT M02/M03 A3048 RMK A01 T10211028  RH  095%=      5-min Rain = 0
KUM1 071837Z 02012KT M02/M03 A3048 RMK A01 T10221029  RH  095%=      5-min Rain = 0
KUM1 071838Z 03010KT M02/M03 A3048 RMK A01 T10221029  RH  095%=      5-min Rain = 0
KUM1 071839Z 03010KT M02/M03 A3048 RMK A01 T10221029  RH  095%=      5-min Rain = 0
KUM1 071840Z 02011KT M02/M03 A3048 RMK A01 T10221028  RH  095%=      5-min Rain = 0
KUM1 071841Z 02012KT M02/M03 A3048 RMK A01 T10221028  RH  095%=      5-min Rain = 0
KUM1 071842Z 02011KT M02/M03 A3048 RMK A01 T10221029  RH  095%=      5-min Rain = 0
KUM1 071843Z 03011KT M02/M03 A3048 RMK A01 T10231029  RH  095%=      5-min Rain = 0
KUM1 071844Z 02011KT M02/M03 A3048 RMK A01 T10231029  RH  095%=      5-min Rain = 0
KUM1 071845Z 02011KT M02/M03 A3048 RMK A01 T10231029  RH  095%=      5-min Rain = 0
KUM1 071846Z 02013KT M02/M03 A3048 RMK A01 T10231029  RH  095%=      5-min Rain = 0
KUM1 071847Z 02012KT M02/M03 A3048 RMK A01 T10231030  RH  095%=      5-min Rain = 0
KUM1 071848Z 02012KT M02/M03 A3048 RMK A01 T10231030  RH  095%=      5-min Rain = 0
KUM1 071849Z 03013KT M02/M03 A3048 RMK A01 T10231030  RH  095%=      5-min Rain = 0
KUM1 071850Z 03012KT M02/M03 A3047 RMK A01 T10231030  RH  095%=      5-min Rain = 0
KUM1 071851Z 03012KT M02/M03 A3047 RMK A01 T10231030  RH  095%=      5-min Rain = 0
KUM1 071852Z 03011KT M02/M03 A3047 RMK A01 T10221029  RH  095%=      5-min Rain = 0
KUM1 071853Z 02014KT M02/M03 A3047 RMK A01 T10221028  RH  095%=      5-min Rain = 0
KUM1 071854Z 02012KT M02/M03 A3047 RMK A01 T10221029  RH  095%=      5-min Rain = 0
KUM1 071855Z 03013KT M02/M03 A3047 RMK A01 T10221029  RH  095%=      5-min Rain = 0
KUM1 071856Z 02012KT M02/M03 A3047 RMK A01 T10231030  RH  095%=      5-min Rain = 0
KUM1 071857Z 02013KT M02/M03 A3047 RMK A01 T10231030  RH  095%=      5-min Rain = 0
KUM1 071858Z 02011KT M02/M03 A3047 RMK A01 T10231030  RH  095%=      5-min Rain = 0
KUM1 071859Z 02012KT M02/M03 A3047 RMK A01 T10231030  RH  095%=      5-min Rain = 0
KUM1 071900Z 01011KT M02/M03 A3047 RMK A01 T10231030  RH  095%=      5-min Rain = 0
KUM1 071901Z 01012KT M02/M03 A3047 RMK A01 T10221028  RH  096%=      5-min Rain = 0
KUM1 071902Z 01013KT M02/M03 A3047 RMK A01 T10231029  RH  095%=      5-min Rain = 0
KUM1 071903Z 02012KT M02/M03 A3047 RMK A01 T10231030  RH  095%=      5-min Rain = 0
KUM1 071904Z 02013KT M02/M03 A3047 RMK A01 T10231030  RH  095%=      5-min Rain = 0
KUM1 071905Z 02013KT M02/M03 A3047 RMK A01 T10231029  RH  095%=      5-min Rain = 0
KUM1 071906Z 02012KT M02/M03 A3047 RMK A01 T10231029  RH  095%=      5-min Rain = 0
KUM1 071907Z 02012KT M02/M03 A3047 RMK A01 T10231029  RH  095%=      5-min Rain = 0
KUM1 071908Z 02012KT M02/M03 A3047 RMK A01 T10231030  RH  095%=      5-min Rain = 0
KUM1 071909Z 02012KT M02/M03 A3047 RMK A01 T10231029  RH  095%=      5-min Rain = 0
KUM1 071910Z 02010KT M02/M03 A3047 RMK A01 T10231030  RH  095%=      5-min Rain = 0
KUM1 071911Z 03011KT M02/M03 A3047 RMK A01 T10221029  RH  095%=      5-min Rain = 0
KUM1 071912Z 02012KT M02/M03 A3047 RMK A01 T10221029  RH  095%=      5-min Rain = 0
KUM1 071913Z 02011KT M02/M03 A3047 RMK A01 T10231029  RH  095%=      5-min Rain = 0
KUM1 071914Z 01012KT M02/M03 A3047 RMK A01 T10231029  RH  095%=      5-min Rain = 0
KUM1 071915Z 01011KT M02/M03 A3047 RMK A01 T10231029  RH  095%=      5-min Rain = 0
KUM1 071916Z 02011KT M02/M03 A3047 RMK A01 T10231030  RH  095%=      5-min Rain = 0
KUM1 071917Z 02011KT M02/M03 A3047 RMK A01 T10231030  RH  095%=      5-min Rain = 0
KUM1 071918Z 02012KT M02/M03 A3047 RMK A01 T10231029  RH  095%=      5-min Rain = 0
KUM1 071919Z 01012KT M02/M03 A3047 RMK A01 T10221029  RH  095%=      5-min Rain = 0
KUM1 071920Z 01012KT M02/M03 A3047 RMK A01 T10221029  RH  095%=      5-min Rain = 0
KUM1 071921Z 01011KT M02/M03 A3047 RMK A01 T10221029  RH  095%=      5-min Rain = 0
KUM1 071922Z 01009KT M02/M03 A3047 RMK A01 T10221029  RH  095%=      5-min Rain = 0
KUM1 071923Z 02009KT M02/M03 A3047 RMK A01 T10211028  RH  095%=      5-min Rain = 0
KUM1 071924Z 01011KT M02/M03 A3047 RMK A01 T10211027  RH  095%=      5-min Rain = 0
KUM1 071925Z 02010KT M02/M03 A3047 RMK A01 T10211028  RH  095%=      5-min Rain = 0
KUM1 071926Z 02011KT M02/M03 A3046 RMK A01 T10211028  RH  095%=      5-min Rain = 0
KUM1 071927Z 01011KT M02/M03 A3046 RMK A01 T10211028  RH  095%=      5-min Rain = 0
KUM1 071928Z 02012KT M02/M03 A3046 RMK A01 T10211028  RH  095%=      5-min Rain = 0
KUM1 071929Z 02013KT M02/M03 A3046 RMK A01 T10211027  RH  096%=      5-min Rain = 0
KUM1 071930Z 01013KT M02/M03 A3046 RMK A01 T10221028  RH  095%=      5-min Rain = 0
KUM1 071931Z 01012KT M02/M03 A3046 RMK A01 T10221029  RH  095%=      5-min Rain = 0
KUM1 071932Z 02011KT M02/M03 A3046 RMK A01 T10221029  RH  095%=      5-min Rain = 0
KUM1 071933Z 02012KT M02/M03 A3046 RMK A01 T10221029  RH  095%=      5-min Rain = 0
KUM1 071934Z 02012KT M02/M03 A3046 RMK A01 T10221029  RH  095%=      5-min Rain = 0
KUM1 071935Z 02011KT M02/M03 A3046 RMK A01 T10221029  RH  095%=      5-min Rain = 0
KUM1 071936Z 02011KT M02/M03 A3046 RMK A01 T10221029  RH  095%=      5-min Rain = 0
KUM1 071937Z 02012KT M02/M03 A3046 RMK A01 T10221028  RH  095%=      5-min Rain = 0
KUM1 071938Z 02009KT M02/M03 A3046 RMK A01 T10221028  RH  095%=      5-min Rain = 0
KUM1 071939Z 02010KT M02/M03 A3046 RMK A01 T10211027  RH  096%=      5-min Rain = 0
KUM1 071940Z 02009KT M02/M03 A3046 RMK A01 T10201026  RH  096%=      5-min Rain = 0
KUM1 071941Z 01009KT M02/M02 A3046 RMK A01 T10191024  RH  096%=      5-min Rain = 0
KUM1 071942Z 01010KT M02/M03 A3046 RMK A01 T10191025  RH  096%=      5-min Rain = 0
KUM1 071943Z 02011KT M02/M03 A3046 RMK A01 T10201025  RH  096%=      5-min Rain = 0
KUM1 071944Z 01011KT M02/M03 A3046 RMK A01 T10201025  RH  096%=      5-min Rain = 0
KUM1 071945Z 02011KT M02/M03 A3046 RMK A01 T10201026  RH  096%=      5-min Rain = 0
KUM1 071946Z 02012KT M02/M03 A3045 RMK A01 T10201026  RH  096%=      5-min Rain = 0
KUM1 071947Z 01011KT M02/M03 A3045 RMK A01 T10201025  RH  096%=      5-min Rain = 0
KUM1 071948Z 01011KT M02/M03 A3045 RMK A01 T10191025  RH  096%=      5-min Rain = 0
KUM1 071949Z 02011KT M02/M03 A3045 RMK A01 T10191025  RH  096%=      5-min Rain = 0
KUM1 071950Z 02010KT M02/M03 A3045 RMK A01 T10191025  RH  096%=      5-min Rain = 0
KUM1 071951Z 02010KT M02/M02 A3045 RMK A01 T10191024  RH  096%=      5-min Rain = 0
KUM1 071952Z 01010KT M02/M03 A3045 RMK A01 T10191025  RH  096%=      5-min Rain = 0
KUM1 071953Z 02010KT M02/M03 A3045 RMK A01 T10201025  RH  096%=      5-min Rain = 0
KUM1 071954Z 01010KT M02/M03 A3045 RMK A01 T10191025  RH  096%=      5-min Rain = 0
KUM1 071955Z 02010KT M02/M02 A3045 RMK A01 T10191024  RH  096%=      5-min Rain = 0
KUM1 071956Z 02009KT M02/M02 A3045 RMK A01 T10191024  RH  096%=      5-min Rain = 0
KUM1 071957Z 02008KT M02/M02 A3045 RMK A01 T10181023  RH  097%=      5-min Rain = 0
KUM1 071958Z 02009KT M02/M02 A3045 RMK A01 T10181022  RH  097%=      5-min Rain = 0
KUM1 071959Z 02009KT M02/M02 A3045 RMK A01 T10181023  RH  097%=      5-min Rain = 0
KUM1 072000Z 03008KT M02/M02 A3045 RMK A01 T10191024  RH  097%=      5-min Rain = 0
KUM1 072001Z 03009KT M02/M02 A3045 RMK A01 T10181022  RH  097%=      5-min Rain = 0
KUM1 072002Z 03008KT M02/M02 A3044 RMK A01 T10181023  RH  097%=      5-min Rain = 0
KUM1 072003Z 03009KT M02/M02 A3044 RMK A01 T10181023  RH  097%=      5-min Rain = 0
KUM1 072004Z 03009KT M02/M02 A3044 RMK A01 T10181023  RH  097%=      5-min Rain = 0
KUM1 072005Z 03008KT M02/M02 A3044 RMK A01 T10181023  RH  097%=      5-min Rain = 0
KUM1 072006Z 03009KT M02/M02 A3044 RMK A01 T10181023  RH  097%=      5-min Rain = 0
KUM1 072007Z 02009KT M02/M02 A3044 RMK A01 T10181023  RH  097%=      5-min Rain = 0
KUM1 072008Z 02008KT M02/M02 A3044 RMK A01 T10191023  RH  097%=      5-min Rain = 0
KUM1 072009Z 02009KT M02/M02 A3044 RMK A01 T10181023  RH  097%=      5-min Rain = 0
KUM1 072010Z 02009KT M02/M02 A3044 RMK A01 T10181023  RH  097%=      5-min Rain = 0
KUM1 072011Z 02009KT M02/M02 A3044 RMK A01 T10181022  RH  097%=      5-min Rain = 0
KUM1 072012Z 03009KT M02/M02 A3044 RMK A01 T10181023  RH  097%=      5-min Rain = 0
KUM1 072013Z 03009KT M02/M02 A3044 RMK A01 T10191024  RH  097%=      5-min Rain = 0
KUM1 072014Z 02008KT M02/M02 A3044 RMK A01 T10191023  RH  097%=      5-min Rain = 0
KUM1 072015Z 03008KT M02/M02 A3044 RMK A01 T10181022  RH  097%=      5-min Rain = 0
KUM1 072016Z 02008KT M02/M02 A3044 RMK A01 T10181022  RH  097%=      5-min Rain = 0
KUM1 072017Z 03007KT M02/M02 A3044 RMK A01 T10181023  RH  097%=      5-min Rain = 0
KUM1 072018Z 03009KT M02/M02 A3044 RMK A01 T10171022  RH  097%=      5-min Rain = 0
KUM1 072019Z 03008KT M02/M02 A3044 RMK A01 T10171022  RH  097%=      5-min Rain = 0
KUM1 072020Z 03008KT M02/M02 A3044 RMK A01 T10171022  RH  097%=      5-min Rain = 0
KUM1 072021Z 03008KT M02/M02 A3044 RMK A01 T10171022  RH  097%=      5-min Rain = 0
KUM1 072022Z 03008KT M02/M02 A3044 RMK A01 T10181023  RH  097%=      5-min Rain = 0
KUM1 072023Z 03007KT M02/M02 A3044 RMK A01 T10181022  RH  097%=      5-min Rain = 0
KUM1 072024Z 03007KT M02/M02 A3044 RMK A01 T10171021  RH  097%=      5-min Rain = 0
KUM1 072025Z 02009KT M02/M02 A3044 RMK A01 T10161021  RH  097%=      5-min Rain = 0
KUM1 072026Z 02008KT M02/M02 A3044 RMK A01 T10171022  RH  097%=      5-min Rain = 0
KUM1 072027Z 02008KT M02/M02 A3044 RMK A01 T10171022  RH  097%=      5-min Rain = 0
KUM1 072028Z 02008KT M02/M02 A3044 RMK A01 T10171022  RH  097%=      5-min Rain = 0
KUM1 072029Z 02008KT M02/M02 A3044 RMK A01 T10171022  RH  097%=      5-min Rain = 0
KUM1 072030Z 03007KT M02/M02 A3044 RMK A01 T10171022  RH  097%=      5-min Rain = 0
KUM1 072031Z 03007KT M02/M02 A3044 RMK A01 T10171022  RH  097%=      5-min Rain = 0
KUM1 072032Z 02006KT M02/M02 A3044 RMK A01 T10161021  RH  097%=      5-min Rain = 0
KUM1 072033Z 01007KT M02/M02 A3044 RMK A01 T10161021  RH  097%=      5-min Rain = 0
KUM1 072034Z 02007KT M02/M02 A3044 RMK A01 T10151020  RH  097%=      5-min Rain = 0
KUM1 072035Z 02007KT M02/M02 A3044 RMK A01 T10151020  RH  097%=      5-min Rain = 0
KUM1 072036Z 02008KT M02/M02 A3044 RMK A01 T10161020  RH  097%=      5-min Rain = 0
KUM1 072037Z 02008KT M02/M02 A3044 RMK A01 T10171021  RH  097%=      5-min Rain = 0
KUM1 072038Z 02007KT M02/M02 A3044 RMK A01 T10181023  RH  096%=      5-min Rain = 0
KUM1 072039Z 03008KT M02/M02 A3044 RMK A01 T10171022  RH  096%=      5-min Rain = 0
KUM1 072040Z 03008KT M02/M02 A3044 RMK A01 T10171022  RH  096%=      5-min Rain = 0
KUM1 072041Z 02007KT M02/M02 A3044 RMK A01 T10171022  RH  096%=      5-min Rain = 0
KUM1 072042Z 02008KT M02/M02 A3044 RMK A01 T10171023  RH  096%=      5-min Rain = 0
KUM1 072043Z 03007KT M02/M02 A3044 RMK A01 T10171022  RH  096%=      5-min Rain = 0
KUM1 072044Z 03007KT M02/M02 A3044 RMK A01 T10171022  RH  096%=      5-min Rain = 0
KUM1 072045Z 03007KT M02/M02 A3044 RMK A01 T10171022  RH  096%=      5-min Rain = 0
KUM1 072046Z 03006KT M02/M02 A3044 RMK A01 T10171022  RH  096%=      5-min Rain = 0
KUM1 072047Z 03006KT M02/M02 A3044 RMK A01 T10171022  RH  097%=      5-min Rain = 0
KUM1 072048Z 03007KT M02/M02 A3044 RMK A01 T10171022  RH  097%=      5-min Rain = 0
KUM1 072049Z 03007KT M02/M02 A3044 RMK A01 T10171021  RH  097%=      5-min Rain = 0
KUM1 072050Z 03006KT M02/M02 A3044 RMK A01 T10171022  RH  096%=      5-min Rain = 0
KUM1 072051Z 02006KT M02/M02 A3044 RMK A01 T10171022  RH  097%=      5-min Rain = 0
KUM1 072052Z 03006KT M02/M02 A3044 RMK A01 T10171021  RH  097%=      5-min Rain = 0
KUM1 072053Z 03006KT M02/M02 A3044 RMK A01 T10161021  RH  097%=      5-min Rain = 0
KUM1 072054Z 03005KT M02/M02 A3044 RMK A01 T10161020  RH  097%=      5-min Rain = 0
KUM1 072055Z 02006KT M02/M02 A3044 RMK A01 T10161020  RH  097%=      5-min Rain = 0
KUM1 072056Z 03005KT M02/M02 A3044 RMK A01 T10151020  RH  097%=      5-min Rain = 0
KUM1 072057Z 03005KT M02/M02 A3044 RMK A01 T10151020  RH  097%=      5-min Rain = 0
KUM1 072058Z 03006KT M02/M02 A3044 RMK A01 T10151019  RH  097%=      5-min Rain = 0
KUM1 072059Z 03006KT M02/M02 A3044 RMK A01 T10151019  RH  097%=      5-min Rain = 0
KUM1 072100Z 03006KT M02/M02 A3044 RMK A01 T10151019  RH  097%=      5-min Rain = 0
KUM1 072101Z 03006KT M02/M02 A3044 RMK A01 T10151019  RH  097%=      5-min Rain = 0
KUM1 072102Z 02006KT M02/M02 A3044 RMK A01 T10151019  RH  097%=      5-min Rain = 0
KUM1 072103Z 03006KT M02/M02 A3044 RMK A01 T10151019  RH  097%=      5-min Rain = 0
KUM1 072104Z 03007KT M01/M02 A3044 RMK A01 T10141018  RH  097%=      5-min Rain = 0
KUM1 072105Z 03007KT M01/M02 A3044 RMK A01 T10141018  RH  097%=      5-min Rain = 0
KUM1 072106Z 03006KT M01/M02 A3044 RMK A01 T10141019  RH  097%=      5-min Rain = 0
KUM1 072107Z 02005KT M02/M02 A3044 RMK A01 T10151019  RH  097%=      5-min Rain = 0
KUM1 072108Z 02006KT M02/M02 A3044 RMK A01 T10151019  RH  097%=      5-min Rain = 0
KUM1 072109Z 02005KT M02/M02 A3044 RMK A01 T10151019  RH  097%=      5-min Rain = 0
KUM1 072110Z 02006KT M02/M02 A3044 RMK A01 T10151019  RH  097%=      5-min Rain = 0
KUM1 072111Z 02005KT M02/M02 A3044 RMK A01 T10151019  RH  097%=      5-min Rain = 0
KUM1 072112Z 02005KT M01/M02 A3044 RMK A01 T10141018  RH  097%=      5-min Rain = 0
KUM1 072113Z 02006KT M01/M02 A3044 RMK A01 T10141018  RH  097%=      5-min Rain = 0
KUM1 072114Z 02006KT M01/M02 A3044 RMK A01 T10131017  RH  097%=      5-min Rain = 0
KUM1 072115Z 02005KT M01/M02 A3044 RMK A01 T10141018  RH  097%=      5-min Rain = 0
KUM1 072116Z 02006KT M01/M02 A3044 RMK A01 T10131017  RH  097%=      5-min Rain = 0
KUM1 072117Z 02005KT M01/M02 A3044 RMK A01 T10131017  RH  097%=      5-min Rain = 0
KUM1 072118Z 02005KT M01/M02 A3044 RMK A01 T10131017  RH  097%=      5-min Rain = 0
KUM1 072119Z 02006KT M01/M02 A3044 RMK A01 T10131017  RH  097%=      5-min Rain = 0
KUM1 072120Z 02005KT M01/M02 A3044 RMK A01 T10131017  RH  097%=      5-min Rain = 0
KUM1 072121Z 01006KT M01/M02 A3044 RMK A01 T10131017  RH  097%=      5-min Rain = 0
KUM1 072122Z 00005KT M01/M02 A3044 RMK A01 T10131017  RH  097%=      5-min Rain = 0
KUM1 072123Z 36005KT M01/M02 A3044 RMK A01 T10131017  RH  097%=      5-min Rain = 0
KUM1 072124Z 01005KT M01/M02 A3044 RMK A01 T10141018  RH  097%=      5-min Rain = 0
KUM1 072125Z 01006KT M01/M02 A3044 RMK A01 T10131017  RH  097%=      5-min Rain = 0
KUM1 072126Z 01006KT M01/M02 A3044 RMK A01 T10141018  RH  097%=      5-min Rain = 0
KUM1 072127Z 00006KT M01/M02 A3044 RMK A01 T10141018  RH  097%=      5-min Rain = 0
KUM1 072128Z 01006KT M01/M02 A3044 RMK A01 T10141017  RH  097%=      5-min Rain = 0
KUM1 072129Z 01006KT M01/M02 A3044 RMK A01 T10131017  RH  097%=      5-min Rain = 0
KUM1 072130Z 02006KT M01/M02 A3044 RMK A01 T10141018  RH  097%=      5-min Rain = 0
KUM1 072131Z 02005KT M01/M02 A3044 RMK A01 T10141018  RH  097%=      5-min Rain = 0
KUM1 072132Z 01005KT M01/M02 A3044 RMK A01 T10131017  RH  097%=      5-min Rain = 0
KUM1 072133Z 01005KT M01/M02 A3044 RMK A01 T10131017  RH  097%=      5-min Rain = 0
KUM1 072134Z 01005KT M01/M02 A3044 RMK A01 T10131017  RH  097%=      5-min Rain = 0
KUM1 072135Z 00006KT M01/M02 A3044 RMK A01 T10131017  RH  097%=      5-min Rain = 0
KUM1 072136Z 01005KT M01/M02 A3044 RMK A01 T10131017  RH  097%=      5-min Rain = 0
KUM1 072137Z 02006KT M01/M02 A3044 RMK A01 T10131017  RH  097%=      5-min Rain = 0
KUM1 072138Z 02006KT M01/M02 A3044 RMK A01 T10131017  RH  097%=      5-min Rain = 0
KUM1 072139Z 02007KT M01/M02 A3044 RMK A01 T10131017  RH  097%=      5-min Rain = 0
KUM1 072140Z 02006KT M01/M02 A3044 RMK A01 T10131017  RH  097%=      5-min Rain = 0
KUM1 072141Z 02006KT M01/M02 A3044 RMK A01 T10131017  RH  097%=      5-min Rain = 0
KUM1 072142Z 02005KT M01/M02 A3044 RMK A01 T10131018  RH  097%=      5-min Rain = 0
KUM1 072143Z 02005KT M01/M02 A3044 RMK A01 T10131017  RH  097%=      5-min Rain = 0
KUM1 072144Z 02005KT M01/M02 A3044 RMK A01 T10121017  RH  097%=      5-min Rain = 0
KUM1 072145Z 02005KT M01/M02 A3044 RMK A01 T10121016  RH  097%=      5-min Rain = 0
KUM1 072146Z 01004KT M01/M02 A3044 RMK A01 T10121016  RH  097%=      5-min Rain = 0
KUM1 072147Z 02004KT M01/M02 A3044 RMK A01 T10121016  RH  097%=      5-min Rain = 0
KUM1 072148Z 02005KT M01/M02 A3044 RMK A01 T10111016  RH  097%=      5-min Rain = 0
KUM1 072149Z 01005KT M01/M02 A3044 RMK A01 T10111016  RH  097%=      5-min Rain = 0
KUM1 072150Z 02006KT M01/M02 A3044 RMK A01 T10111016  RH  097%=      5-min Rain = 0
KUM1 072151Z 02005KT M01/M02 A3044 RMK A01 T10111015  RH  097%=      5-min Rain = 0
KUM1 072152Z 02005KT M01/M02 A3044 RMK A01 T10111016  RH  097%=      5-min Rain = 0
KUM1 072153Z 01005KT M01/M02 A3044 RMK A01 T10111016  RH  097%=      5-min Rain = 0
KUM1 072154Z 01004KT M01/M02 A3044 RMK A01 T10111015  RH  097%=      5-min Rain = 0
KUM1 072155Z 36004KT M01/M01 A3044 RMK A01 T10101014  RH  097%=      5-min Rain = 0
KUM1 072156Z 36005KT M01/M01 A3044 RMK A01 T10101014  RH  097%=      5-min Rain = 0
KUM1 072157Z 36005KT M01/M02 A3044 RMK A01 T10111015  RH  097%=      5-min Rain = 0
KUM1 072158Z 00005KT M01/M02 A3044 RMK A01 T10111016  RH  097%=      5-min Rain = 0
KUM1 072159Z 00005KT M01/M02 A3044 RMK A01 T10111016  RH  097%=      5-min Rain = 0
KUM1 072200Z 01005KT M01/M02 A3044 RMK A01 T10121016  RH  097%=      5-min Rain = 0
KUM1 072201Z 02005KT M01/M02 A3044 RMK A01 T10121016  RH  097%=      5-min Rain = 0
KUM1 072202Z 02005KT M01/M02 A3044 RMK A01 T10121016  RH  097%=      5-min Rain = 0
KUM1 072203Z 02005KT M01/M02 A3044 RMK A01 T10121016  RH  097%=      5-min Rain = 0
KUM1 072204Z 02005KT M01/M02 A3044 RMK A01 T10121016  RH  097%=      5-min Rain = 0
KUM1 072205Z 02005KT M01/M02 A3044 RMK A01 T10121016  RH  097%=      5-min Rain = 0
KUM1 072206Z 02005KT M01/M02 A3044 RMK A01 T10121017  RH  097%=      5-min Rain = 0
KUM1 072207Z 02005KT M01/M02 A3044 RMK A01 T10131017  RH  097%=      5-min Rain = 0
KUM1 072208Z 01005KT M01/M02 A3044 RMK A01 T10131017  RH  097%=      5-min Rain = 0
KUM1 072209Z 01005KT M01/M02 A3044 RMK A01 T10131017  RH  097%=      5-min Rain = 0
KUM1 072210Z 01005KT M01/M02 A3044 RMK A01 T10131017  RH  097%=      5-min Rain = 0
KUM1 072211Z 01005KT M01/M02 A3044 RMK A01 T10121017  RH  097%=      5-min Rain = 0
KUM1 072212Z 02006KT M01/M02 A3044 RMK A01 T10131017  RH  097%=      5-min Rain = 0
KUM1 072213Z 01006KT M01/M02 A3044 RMK A01 T10131017  RH  097%=      5-min Rain = 0
KUM1 072214Z 02006KT M01/M02 A3044 RMK A01 T10121017  RH  097%=      5-min Rain = 0
KUM1 072215Z 02005KT M01/M02 A3044 RMK A01 T10121017  RH  097%=      5-min Rain = 0
KUM1 072216Z 01005KT M01/M02 A3044 RMK A01 T10121017  RH  097%=      5-min Rain = 0
KUM1 072217Z 02005KT M01/M02 A3044 RMK A01 T10121017  RH  097%=      5-min Rain = 0
KUM1 072218Z 02005KT M01/M02 A3044 RMK A01 T10121017  RH  096%=      5-min Rain = 0
KUM1 072219Z 02005KT M01/M02 A3044 RMK A01 T10111016  RH  097%=      5-min Rain = 0
KUM1 072220Z 02005KT M01/M02 A3044 RMK A01 T10111016  RH  097%=      5-min Rain = 0
KUM1 072221Z 02005KT M01/M02 A3044 RMK A01 T10111016  RH  097%=      5-min Rain = 0
KUM1 072222Z 02005KT M01/M02 A3044 RMK A01 T10121017  RH  096%=      5-min Rain = 0
KUM1 072223Z 02005KT M01/M02 A3044 RMK A01 T10111016  RH  097%=      5-min Rain = 0
KUM1 072224Z 02005KT M01/M02 A3044 RMK A01 T10111016  RH  097%=      5-min Rain = 0
KUM1 072225Z 02005KT M01/M02 A3044 RMK A01 T10111016  RH  097%=      5-min Rain = 0
KUM1 072226Z 02005KT M01/M02 A3044 RMK A01 T10111016  RH  097%=      5-min Rain = 0
KUM1 072227Z 02005KT M01/M02 A3044 RMK A01 T10111016  RH  097%=      5-min Rain = 0
KUM1 072228Z 02005KT M01/M02 A3044 RMK A01 T10111016  RH  097%=      5-min Rain = 0
KUM1 072229Z 02005KT M01/M02 A3044 RMK A01 T10111016  RH  097%=      5-min Rain = 0
KUM1 072230Z 01004KT M01/M02 A3044 RMK A01 T10111016  RH  097%=      5-min Rain = 0
KUM1 072231Z 01004KT M01/M02 A3044 RMK A01 T10111016  RH  097%=      5-min Rain = 0
KUM1 072232Z 02004KT M01/M02 A3044 RMK A01 T10111016  RH  097%=      5-min Rain = 0
KUM1 072233Z 01004KT M01/M02 A3044 RMK A01 T10121016  RH  097%=      5-min Rain = 0
KUM1 072234Z 00004KT M01/M02 A3044 RMK A01 T10111016  RH  097%=      5-min Rain = 0
KUM1 072235Z 00005KT M01/M01 A3044 RMK A01 T10101014  RH  097%=      5-min Rain = 0
KUM1 072236Z 00005KT M01/M01 A3044 RMK A01 T10101014  RH  097%=      5-min Rain = 0
KUM1 072237Z 00005KT M01/M02 A3044 RMK A01 T10101015  RH  097%=      5-min Rain = 0
KUM1 072238Z 00005KT M01/M02 A3044 RMK A01 T10111015  RH  097%=      5-min Rain = 0
KUM1 072239Z 01005KT M01/M02 A3044 RMK A01 T10111015  RH  097%=      5-min Rain = 0
KUM1 072240Z 01005KT M01/M02 A3044 RMK A01 T10101015  RH  097%=      5-min Rain = 0
KUM1 072241Z 01005KT M01/M02 A3044 RMK A01 T10111015  RH  097%=      5-min Rain = 0
KUM1 072242Z 01005KT M01/M02 A3044 RMK A01 T10111016  RH  097%=      5-min Rain = 0
KUM1 072243Z 01004KT M01/M02 A3044 RMK A01 T10111016  RH  097%=      5-min Rain = 0
KUM1 072244Z 01005KT M01/M02 A3044 RMK A01 T10111016  RH  097%=      5-min Rain = 0
KUM1 072245Z 01005KT M01/M02 A3044 RMK A01 T10111015  RH  097%=      5-min Rain = 0
KUM1 072246Z 01005KT M01/M02 A3044 RMK A01 T10111015  RH  097%=      5-min Rain = 0
KUM1 072247Z 01005KT M01/M02 A3044 RMK A01 T10111016  RH  097%=      5-min Rain = 0
KUM1 072248Z 01005KT M01/M02 A3044 RMK A01 T10101015  RH  097%=      5-min Rain = 0
KUM1 072249Z 01004KT M01/M01 A3044 RMK A01 T10101014  RH  097%=      5-min Rain = 0
KUM1 072250Z 01004KT M01/M01 A3044 RMK A01 T10091014  RH  097%=      5-min Rain = 0
KUM1 072251Z 01004KT M01/M01 A3044 RMK A01 T10091014  RH  097%=      5-min Rain = 0
KUM1 072252Z 02004KT M01/M01 A3044 RMK A01 T10091014  RH  097%=      5-min Rain = 0
KUM1 072253Z 01004KT M01/M01 A3044 RMK A01 T10091014  RH  097%=      5-min Rain = 0
KUM1 072254Z 02003KT M01/M01 A3044 RMK A01 T10091014  RH  096%=      5-min Rain = 0
KUM1 072255Z 01005KT M01/M01 A3044 RMK A01 T10091014  RH  096%=      5-min Rain = 0
KUM1 072256Z 01005KT M01/M02 A3044 RMK A01 T10091015  RH  096%=      5-min Rain = 0
KUM1 072257Z 01004KT M01/M02 A3044 RMK A01 T10091015  RH  096%=      5-min Rain = 0
KUM1 072258Z 02004KT M01/M02 A3044 RMK A01 T10091015  RH  095%=      5-min Rain = 0
KUM1 072259Z 02004KT M01/M02 A3044 RMK A01 T10081015  RH  095%=      5-min Rain = 0
KUM1 072300Z 01004KT M01/M02 A3044 RMK A01 T10081015  RH  095%=      5-min Rain = 0
KUM1 072301Z 01004KT M01/M02 A3044 RMK A01 T10081015  RH  095%=      5-min Rain = 0
KUM1 072302Z 01003KT M01/M02 A3044 RMK A01 T10081015  RH  095%=      5-min Rain = 0
KUM1 072303Z 02004KT M01/M01 A3044 RMK A01 T10071014  RH  095%=      5-min Rain = 0
KUM1 072304Z 02005KT M01/M02 A3044 RMK A01 T10071015  RH  095%=      5-min Rain = 0
KUM1 072305Z 02004KT M01/M02 A3044 RMK A01 T10071015  RH  094%=      5-min Rain = 0
KUM1 072306Z 02004KT M01/M02 A3044 RMK A01 T10071015  RH  094%=      5-min Rain = 0
KUM1 072307Z 01004KT M01/M02 A3044 RMK A01 T10071015  RH  094%=      5-min Rain = 0
KUM1 072308Z 02004KT M01/M02 A3044 RMK A01 T10071015  RH  094%=      5-min Rain = 0
KUM1 072309Z 02004KT M01/M02 A3044 RMK A01 T10071016  RH  094%=      5-min Rain = 0
KUM1 072310Z 02004KT M01/M02 A3044 RMK A01 T10071017  RH  093%=      5-min Rain = 0
KUM1 072311Z 02004KT M01/M02 A3044 RMK A01 T10071017  RH  093%=      5-min Rain = 0
KUM1 072312Z 01004KT M01/M02 A3045 RMK A01 T10071017  RH  093%=      5-min Rain = 0
KUM1 072313Z 01004KT M01/M02 A3045 RMK A01 T10061016  RH  093%=      5-min Rain = 0
KUM1 072314Z 01005KT M01/M02 A3045 RMK A01 T10061017  RH  093%=      5-min Rain = 0
KUM1 072315Z 02004KT M01/M02 A3045 RMK A01 T10061017  RH  092%=      5-min Rain = 0
KUM1 072316Z 01004KT M01/M02 A3045 RMK A01 T10061018  RH  092%=      5-min Rain = 0
KUM1 072317Z 01004KT M01/M02 A3045 RMK A01 T10061018  RH  092%=      5-min Rain = 0
KUM1 072318Z 01004KT M01/M02 A3045 RMK A01 T10061018  RH  092%=      5-min Rain = 0
KUM1 072319Z 00004KT M01/M02 A3045 RMK A01 T10061018  RH  092%=      5-min Rain = 0
KUM1 072320Z 01004KT M01/M02 A3045 RMK A01 T10061019  RH  091%=      5-min Rain = 0
KUM1 072321Z 02005KT M01/M02 A3044 RMK A01 T10061019  RH  091%=      5-min Rain = 0
KUM1 072322Z 02005KT M01/M02 A3044 RMK A01 T10061019  RH  091%=      5-min Rain = 0
KUM1 072323Z 02004KT M01/M02 A3044 RMK A01 T10061018  RH  091%=      5-min Rain = 0
KUM1 072324Z 01004KT M01/M02 A3044 RMK A01 T10061018  RH  092%=      5-min Rain = 0
KUM1 072325Z 01005KT M01/M02 A3044 RMK A01 T10051017  RH  092%=      5-min Rain = 0
KUM1 072326Z 01004KT M01/M02 A3044 RMK A01 T10051016  RH  092%=      5-min Rain = 0
KUM1 072327Z 01003KT M01/M02 A3044 RMK A01 T10051016  RH  093%=      5-min Rain = 0
KUM1 072328Z 01004KT M01/M02 A3044 RMK A01 T10061016  RH  093%=      5-min Rain = 0
KUM1 072329Z 00004KT M01/M02 A3044 RMK A01 T10051016  RH  093%=      5-min Rain = 0
KUM1 072330Z 01004KT M01/M02 A3044 RMK A01 T10051016  RH  093%=      5-min Rain = 0
KUM1 072331Z 01004KT M01/M02 A3045 RMK A01 T10051015  RH  093%=      5-min Rain = 0
KUM1 072332Z 00004KT M01/M02 A3045 RMK A01 T10051015  RH  093%=      5-min Rain = 0
KUM1 072333Z 01004KT M01/M02 A3045 RMK A01 T10051015  RH  093%=      5-min Rain = 0
KUM1 072334Z 01004KT M01/M02 A3045 RMK A01 T10051015  RH  093%=      5-min Rain = 0
KUM1 072335Z 01003KT M01/M02 A3045 RMK A01 T10051016  RH  093%=      5-min Rain = 0
KUM1 072336Z 01004KT M01/M02 A3044 RMK A01 T10051016  RH  093%=      5-min Rain = 0
KUM1 072337Z 01004KT M01/M02 A3044 RMK A01 T10051016  RH  092%=      5-min Rain = 0
KUM1 072338Z 02005KT M01/M02 A3044 RMK A01 T10051017  RH  092%=      5-min Rain = 0
KUM1 072339Z 02004KT M01/M02 A3044 RMK A01 T10051017  RH  092%=      5-min Rain = 0
KUM1 072340Z 02004KT M01/M02 A3044 RMK A01 T10051018  RH  092%=      5-min Rain = 0
KUM1 072341Z 02004KT M01/M02 A3044 RMK A01 T10051017  RH  092%=      5-min Rain = 0
KUM1 072342Z 02003KT M01/M02 A3044 RMK A01 T10051017  RH  092%=      5-min Rain = 0
KUM1 072343Z 02004KT M01/M02 A3044 RMK A01 T10051016  RH  092%=      5-min Rain = 0
KUM1 072344Z 02004KT M01/M02 A3044 RMK A01 T10051016  RH  093%=      5-min Rain = 0
KUM1 072345Z 02004KT M01/M02 A3044 RMK A01 T10051016  RH  092%=      5-min Rain = 0
KUM1 072346Z 02004KT M01/M02 A3044 RMK A01 T10051016  RH  092%=      5-min Rain = 0
KUM1 072347Z 02004KT M01/M02 A3044 RMK A01 T10051016  RH  092%=      5-min Rain = 0
KUM1 072348Z 02004KT M01/M02 A3044 RMK A01 T10051017  RH  092%=      5-min Rain = 0
KUM1 072349Z 02005KT M01/M02 A3044 RMK A01 T10051017  RH  092%=      5-min Rain = 0
KUM1 072350Z 02004KT M01/M02 A3044 RMK A01 T10051016  RH  092%=      5-min Rain = 0
KUM1 072351Z 02004KT M01/M02 A3044 RMK A01 T10051016  RH  092%=      5-min Rain = 0
KUM1 072352Z 02004KT M01/M02 A3044 RMK A01 T10051016  RH  092%=      5-min Rain = 0
KUM1 072353Z 01004KT M01/M02 A3044 RMK A01 T10051015  RH  093%=      5-min Rain = 0
KUM1 072354Z 01004KT M01/M02 A3044 RMK A01 T10051015  RH  093%=      5-min Rain = 0
KUM1 072355Z 01004KT M00/M02 A3044 RMK A01 T10041015  RH  092%=      5-min Rain = 0
KUM1 072356Z 01004KT M01/M02 A3044 RMK A01 T10051017  RH  092%=      5-min Rain = 0
KUM1 072357Z 02004KT M01/M02 A3044 RMK A01 T10051017  RH  091%=      5-min Rain = 0
KUM1 072358Z 02004KT M01/M02 A3044 RMK A01 T10051017  RH  092%=      5-min Rain = 0
KUM1 072359Z 01004KT M01/M02 A3044 RMK A01 T10051017  RH  091%=      5-min Rain = 0
KUM1 080000Z 02004KT M01/M02 A3044 RMK A01 T10051018  RH  091%=      5-min Rain = 0
KUM1 080001Z 01003KT M01/M02 A3044 RMK A01 T10051018  RH  091%=      5-min Rain = 0
KUM1 080002Z 01003KT M01/M02 A3044 RMK A01 T10051017  RH  091%=      5-min Rain = 0
KUM1 080003Z 00003KT M00/M02 A3044 RMK A01 T10041016  RH  092%=      5-min Rain = 0
KUM1 080004Z 00003KT M00/M02 A3044 RMK A01 T10041017  RH  091%=      5-min Rain = 0
KUM1 080005Z 35003KT M00/M02 A3045 RMK A01 T10041017  RH  091%=      5-min Rain = 0
KUM1 080006Z 00002KT M00/M02 A3045 RMK A01 T10041016  RH  092%=      5-min Rain = 0
KUM1 080007Z 36003KT M01/M02 A3045 RMK A01 T10051016  RH  092%=      5-min Rain = 0
KUM1 080008Z 01003KT M00/M02 A3045 RMK A01 T10041016  RH  092%=      5-min Rain = 0
KUM1 080009Z 00003KT M00/M02 A3045 RMK A01 T10041017  RH  092%=      5-min Rain = 0
KUM1 080010Z 01003KT M01/M02 A3045 RMK A01 T10051017  RH  091%=      5-min Rain = 0
KUM1 080011Z 01003KT M00/M02 A3045 RMK A01 T10041017  RH  091%=      5-min Rain = 0
KUM1 080012Z 02003KT M00/M02 A3045 RMK A01 T10041017  RH  091%=      5-min Rain = 0
KUM1 080013Z 01003KT M00/M02 A3045 RMK A01 T10041017  RH  091%=      5-min Rain = 0
KUM1 080014Z 01003KT M00/M02 A3045 RMK A01 T10041017  RH  091%=      5-min Rain = 0
KUM1 080015Z 01003KT M00/M02 A3045 RMK A01 T10041016  RH  092%=      5-min Rain = 0
KUM1 080016Z 00004KT M00/M02 A3045 RMK A01 T10041016  RH  092%=      5-min Rain = 0
KUM1 080017Z 00003KT M00/M02 A3045 RMK A01 T10041016  RH  092%=      5-min Rain = 0
KUM1 080018Z 01004KT M00/M02 A3045 RMK A01 T10041016  RH  092%=      5-min Rain = 0
KUM1 080019Z 01003KT M00/M02 A3045 RMK A01 T10041015  RH  092%=      5-min Rain = 0
KUM1 080020Z 01004KT M00/M02 A3045 RMK A01 T10041015  RH  092%=      5-min Rain = 0
KUM1 080021Z 00003KT M00/M02 A3045 RMK A01 T10041015  RH  092%=      5-min Rain = 0
KUM1 080022Z 00003KT M00/M02 A3045 RMK A01 T10041016  RH  092%=      5-min Rain = 0
KUM1 080023Z 00003KT M00/M02 A3045 RMK A01 T10041016  RH  092%=      5-min Rain = 0
KUM1 080024Z 01003KT M00/M02 A3045 RMK A01 T10041015  RH  092%=      5-min Rain = 0
KUM1 080025Z 01003KT M00/M02 A3045 RMK A01 T10041015  RH  092%=      5-min Rain = 0
KUM1 080026Z 00003KT M00/M02 A3045 RMK A01 T10041015  RH  092%=      5-min Rain = 0
KUM1 080027Z 01003KT M00/M02 A3045 RMK A01 T10041015  RH  092%=      5-min Rain = 0
KUM1 080028Z 35002KT M00/M02 A3045 RMK A01 T10041015  RH  092%=      5-min Rain = 0
KUM1 080029Z 36002KT M00/M02 A3045 RMK A01 T10041015  RH  092%=      5-min Rain = 0
KUM1 080030Z 36003KT M00/M01 A3045 RMK A01 T10041014  RH  093%=      5-min Rain = 0
KUM1 080031Z 00003KT M00/M01 A3045 RMK A01 T10041014  RH  092%=      5-min Rain = 0
KUM1 080032Z 00003KT M00/M02 A3045 RMK A01 T10041015  RH  092%=      5-min Rain = 0
KUM1 080033Z 01003KT M00/M02 A3045 RMK A01 T10041015  RH  092%=      5-min Rain = 0
KUM1 080034Z 00003KT M00/M02 A3045 RMK A01 T10041016  RH  092%=      5-min Rain = 0
KUM1 080035Z 00003KT M00/M02 A3045 RMK A01 T10041016  RH  091%=      5-min Rain = 0
KUM1 080036Z 00003KT M00/M02 A3045 RMK A01 T10041016  RH  091%=      5-min Rain = 0
KUM1 080037Z 01003KT M00/M02 A3045 RMK A01 T10031016  RH  091%=      5-min Rain = 0
KUM1 080038Z 00003KT M00/M02 A3045 RMK A01 T10041016  RH  092%=      5-min Rain = 0
KUM1 080039Z 01003KT M00/M02 A3045 RMK A01 T10031015  RH  092%=      5-min Rain = 0
KUM1 080040Z 01003KT M00/M02 A3045 RMK A01 T10031015  RH  092%=      5-min Rain = 0
KUM1 080041Z 01003KT M00/M02 A3045 RMK A01 T10031015  RH  092%=      5-min Rain = 0
KUM1 080042Z 02003KT M00/M02 A3045 RMK A01 T10031015  RH  092%=      5-min Rain = 0
KUM1 080043Z 01002KT M00/M02 A3045 RMK A01 T10031015  RH  092%=      5-min Rain = 0
KUM1 080044Z 01002KT M00/M01 A3045 RMK A01 T10031014  RH  092%=      5-min Rain = 0
KUM1 080045Z 00003KT M00/M01 A3045 RMK A01 T10021014  RH  092%=      5-min Rain = 0
KUM1 080046Z 01003KT M00/M01 A3045 RMK A01 T10031014  RH  092%=      5-min Rain = 0
KUM1 080047Z 01003KT M00/M01 A3045 RMK A01 T10031014  RH  092%=      5-min Rain = 0
KUM1 080048Z 01003KT M00/M02 A3045 RMK A01 T10031015  RH  092%=      5-min Rain = 0
KUM1 080049Z 02003KT M00/M02 A3045 RMK A01 T10031015  RH  091%=      5-min Rain = 0
KUM1 080050Z 02003KT M00/M02 A3045 RMK A01 T10031016  RH  091%=      5-min Rain = 0
KUM1 080051Z 02003KT M00/M02 A3045 RMK A01 T10031016  RH  091%=      5-min Rain = 0
KUM1 080052Z 02003KT M00/M02 A3045 RMK A01 T10031015  RH  091%=      5-min Rain = 0
KUM1 080053Z 03003KT M00/M02 A3045 RMK A01 T10031016  RH  091%=      5-min Rain = 0
KUM1 080054Z 02003KT M00/M02 A3045 RMK A01 T10031016  RH  091%=      5-min Rain = 0
KUM1 080055Z 02003KT M00/M02 A3045 RMK A01 T10031016  RH  091%=      5-min Rain = 0
KUM1 080056Z 02003KT M00/M02 A3045 RMK A01 T10031016  RH  091%=      5-min Rain = 0
KUM1 080057Z 03003KT M00/M02 A3045 RMK A01 T10031015  RH  091%=      5-min Rain = 0
KUM1 080058Z 02003KT M00/M01 A3045 RMK A01 T10021014  RH  092%=      5-min Rain = 0
KUM1 080059Z 02003KT M00/M01 A3045 RMK A01 T10021014  RH  092%=      5-min Rain = 0
KUM1 080100Z 02003KT M00/M01 A3045 RMK A01 T10021014  RH  092%=      5-min Rain = 0
KUM1 080101Z 02003KT M00/M01 A3045 RMK A01 T10021014  RH  092%=      5-min Rain = 0
KUM1 080102Z 02003KT M00/M02 A3045 RMK A01 T10031015  RH  092%=      5-min Rain = 0
KUM1 080103Z 02003KT M00/M02 A3045 RMK A01 T10031015  RH  092%=      5-min Rain = 0
KUM1 080104Z 03003KT M00/M01 A3045 RMK A01 T10031014  RH  092%=      5-min Rain = 0
KUM1 080105Z 03003KT M00/M01 A3045 RMK A01 T10031014  RH  092%=      5-min Rain = 0
KUM1 080106Z 03003KT M00/M01 A3045 RMK A01 T10021014  RH  092%=      5-min Rain = 0
KUM1 080107Z 02003KT M00/M01 A3045 RMK A01 T10021014  RH  092%=      5-min Rain = 0
KUM1 080108Z 01003KT M00/M01 A3045 RMK A01 T10021014  RH  092%=      5-min Rain = 0
KUM1 080109Z 02002KT M00/M01 A3045 RMK A01 T10021014  RH  092%=      5-min Rain = 0
KUM1 080110Z 02002KT M00/M01 A3045 RMK A01 T10021014  RH  092%=      5-min Rain = 0
KUM1 080111Z 02002KT M00/M01 A3045 RMK A01 T10021013  RH  092%=      5-min Rain = 0
KUM1 080112Z 02002KT M00/M01 A3045 RMK A01 T10021013  RH  093%=      5-min Rain = 0
KUM1 080113Z 02002KT M00/M01 A3045 RMK A01 T10021013  RH  092%=      5-min Rain = 0
KUM1 080114Z 02002KT M00/M01 A3045 RMK A01 T10021012  RH  093%=      5-min Rain = 0
KUM1 080115Z 01002KT M00/M01 A3045 RMK A01 T10021012  RH  093%=      5-min Rain = 0
KUM1 080116Z 02002KT M00/M01 A3045 RMK A01 T10021013  RH  093%=      5-min Rain = 0
KUM1 080117Z 01001KT M00/M01 A3045 RMK A01 T10021013  RH  093%=      5-min Rain = 0
KUM1 080118Z 01001KT M00/M01 A3045 RMK A01 T10021013  RH  093%=      5-min Rain = 0
KUM1 080119Z 01001KT M00/M01 A3045 RMK A01 T10021013  RH  093%=      5-min Rain = 0
KUM1 080120Z 35001KT M00/M01 A3045 RMK A01 T10021013  RH  093%=      5-min Rain = 0
KUM1 080121Z 36001KT M00/M01 A3045 RMK A01 T10021012  RH  093%=      5-min Rain = 0
KUM1 080122Z 36001KT M00/M01 A3045 RMK A01 T10021012  RH  093%=      5-min Rain = 0
KUM1 080123Z 00002KT M00/M01 A3045 RMK A01 T10021012  RH  093%=      5-min Rain = 0
KUM1 080124Z 00002KT M00/M01 A3045 RMK A01 T10021012  RH  093%=      5-min Rain = 0
KUM1 080125Z 00002KT M00/M01 A3045 RMK A01 T10021012  RH  093%=      5-min Rain = 0
KUM1 080126Z 00002KT M00/M01 A3045 RMK A01 T10021013  RH  092%=      5-min Rain = 0
KUM1 080127Z 00002KT M00/M01 A3045 RMK A01 T10021014  RH  092%=      5-min Rain = 0
KUM1 080128Z 00002KT M00/M01 A3045 RMK A01 T10021013  RH  092%=      5-min Rain = 0
KUM1 080129Z 00002KT M00/M01 A3045 RMK A01 T10021012  RH  093%=      5-min Rain = 0
KUM1 080130Z 00002KT M00/M01 A3045 RMK A01 T10021012  RH  093%=      5-min Rain = 0
KUM1 080131Z 36002KT M00/M01 A3045 RMK A01 T10021012  RH  093%=      5-min Rain = 0
KUM1 080132Z 00002KT M00/M01 A3045 RMK A01 T10021012  RH  093%=      5-min Rain = 0
KUM1 080133Z 36002KT M00/M01 A3045 RMK A01 T10021012  RH  093%=      5-min Rain = 0
KUM1 080134Z 35001KT M00/M01 A3045 RMK A01 T10021013  RH  092%=      5-min Rain = 0
KUM1 080135Z 34002KT M00/M01 A3045 RMK A01 T10021013  RH  092%=      5-min Rain = 0
KUM1 080136Z 34002KT M00/M01 A3045 RMK A01 T10021013  RH  093%=      5-min Rain = 0
KUM1 080137Z 35002KT M00/M01 A3045 RMK A01 T10021012  RH  093%=      5-min Rain = 0
KUM1 080138Z 35002KT M00/M01 A3045 RMK A01 T10021012  RH  093%=      5-min Rain = 0
KUM1 080139Z 35002KT M00/M01 A3045 RMK A01 T10021012  RH  092%=      5-min Rain = 0
KUM1 080140Z 34001KT M00/M01 A3045 RMK A01 T10021013  RH  092%=      5-min Rain = 0
KUM1 080141Z 34002KT M00/M01 A3045 RMK A01 T10021013  RH  092%=      5-min Rain = 0
KUM1 080142Z 34002KT M00/M01 A3045 RMK A01 T10021013  RH  092%=      5-min Rain = 0
KUM1 080143Z 34001KT M00/M01 A3045 RMK A01 T10021013  RH  092%=      5-min Rain = 0
KUM1 080144Z 34001KT M00/M01 A3046 RMK A01 T10021014  RH  092%=      5-min Rain = 0
KUM1 080145Z 34001KT M00/M01 A3046 RMK A01 T10021013  RH  092%=      5-min Rain = 0
KUM1 080146Z 34001KT M00/M01 A3046 RMK A01 T10011012  RH  092%=      5-min Rain = 0
KUM1 080147Z 34001KT M00/M01 A3046 RMK A01 T10011011  RH  093%=      5-min Rain = 0
KUM1 080148Z 34002KT 00/01 A3046 RMK A01 T00-00-11  RH  093%=      5-min Rain = 0
KUM1 080149Z 34002KT M00/M01 A3046 RMK A01 T10011013  RH  092%=      5-min Rain = 0
KUM1 080150Z 33002KT M00/M01 A3046 RMK A01 T10011013  RH  092%=      5-min Rain = 0
KUM1 080151Z 33002KT M00/M01 A3046 RMK A01 T10011013  RH  092%=      5-min Rain = 0
KUM1 080152Z 33002KT M00/M01 A3046 RMK A01 T10011012  RH  092%=      5-min Rain = 0
KUM1 080153Z 32002KT M00/M01 A3046 RMK A01 T10011012  RH  092%=      5-min Rain = 0
KUM1 080154Z 32002KT M00/M01 A3046 RMK A01 T10011012  RH  092%=      5-min Rain = 0
KUM1 080155Z 32002KT M00/M01 A3046 RMK A01 T10011012  RH  092%=      5-min Rain = 0
KUM1 080156Z 33002KT M00/M01 A3046 RMK A01 T10011012  RH  092%=      5-min Rain = 0
KUM1 080157Z 33002KT M00/M01 A3046 RMK A01 T10011012  RH  092%=      5-min Rain = 0
KUM1 080158Z 33002KT M00/M01 A3046 RMK A01 T10011012  RH  092%=      5-min Rain = 0
KUM1 080159Z 33002KT M00/M01 A3046 RMK A01 T10011012  RH  092%=      5-min Rain = 0
KUM1 080200Z 33002KT M00/M01 A3046 RMK A01 T10011012  RH  092%=      5-min Rain = 0
KUM1 080201Z 34002KT M00/M01 A3046 RMK A01 T10011013  RH  092%=      5-min Rain = 0
KUM1 080202Z 34002KT M00/M01 A3046 RMK A01 T10011013  RH  092%=      5-min Rain = 0
KUM1 080203Z 34002KT M00/M01 A3046 RMK A01 T10011013  RH  092%=      5-min Rain = 0
KUM1 080204Z 34002KT M00/M01 A3046 RMK A01 T10011013  RH  091%=      5-min Rain = 0
KUM1 080205Z 34002KT 00/01 A3046 RMK A01 T00-00-12  RH  092%=      5-min Rain = 0
KUM1 080206Z 34002KT 00/01 A3046 RMK A01 T00000-11  RH  092%=      5-min Rain = 0
KUM1 080207Z 34002KT 00/01 A3046 RMK A01 T00000-11  RH  092%=      5-min Rain = 0
KUM1 080208Z 35002KT 00/01 A3045 RMK A01 T00000-11  RH  092%=      5-min Rain = 0
KUM1 080209Z 35002KT 00/01 A3045 RMK A01 T00-00-12  RH  092%=      5-min Rain = 0
KUM1 080210Z 36002KT 00/01 A3045 RMK A01 T00000-12  RH  092%=      5-min Rain = 0
KUM1 080211Z 36002KT 00/01 A3045 RMK A01 T00-00-12  RH  092%=      5-min Rain = 0
KUM1 080212Z 00002KT 00/01 A3045 RMK A01 T00000-11  RH  092%=      5-min Rain = 0
KUM1 080213Z 01002KT 00/01 A3045 RMK A01 T00-00-11  RH  092%=      5-min Rain = 0
KUM1 080214Z 01002KT 00/01 A3045 RMK A01 T00-00-12  RH  092%=      5-min Rain = 0
KUM1 080215Z 01002KT 00/01 A3045 RMK A01 T00-00-13  RH  092%=      5-min Rain = 0
KUM1 080216Z 00002KT 00/01 A3045 RMK A01 T00-00-13  RH  091%=      5-min Rain = 0
KUM1 080217Z 01002KT 00/01 A3045 RMK A01 T00-00-13  RH  092%=      5-min Rain = 0
KUM1 080218Z 01002KT 00/01 A3045 RMK A01 T00000-12  RH  092%=      5-min Rain = 0
KUM1 080219Z 01002KT 00/01 A3045 RMK A01 T00000-11  RH  092%=      5-min Rain = 0
KUM1 080220Z 01002KT 00/01 A3045 RMK A01 T00-00-11  RH  092%=      5-min Rain = 0
KUM1 080221Z 01002KT 00/01 A3045 RMK A01 T00000-11  RH  092%=      5-min Rain = 0
KUM1 080222Z 01002KT 00/01 A3045 RMK A01 T00000-11  RH  092%=      5-min Rain = 0
KUM1 080223Z 01002KT 00/01 A3045 RMK A01 T00000-11  RH  092%=      5-min Rain = 0
KUM1 080224Z 01002KT 00/01 A3045 RMK A01 T00-00-11  RH  092%=      5-min Rain = 0
KUM1 080225Z 00003KT 00/01 A3045 RMK A01 T00000-11  RH  092%=      5-min Rain = 0
KUM1 080226Z 00003KT 00/01 A3045 RMK A01 T00000-11  RH  092%=      5-min Rain = 0
KUM1 080227Z 00003KT 00/01 A3045 RMK A01 T00000-12  RH  092%=      5-min Rain = 0
KUM1 080228Z 00003KT 00/01 A3045 RMK A01 T00-00-12  RH  092%=      5-min Rain = 0
KUM1 080229Z 36002KT 00/01 A3045 RMK A01 T00-00-12  RH  092%=      5-min Rain = 0
KUM1 080230Z 01003KT 00/01 A3045 RMK A01 T00000-11  RH  092%=      5-min Rain = 0
KUM1 080231Z 00002KT 00/M01 A3045 RMK A01 T00011011  RH  092%=      5-min Rain = 0
KUM1 080232Z 00002KT 00/M01 A3045 RMK A01 T00011011  RH  092%=      5-min Rain = 0
KUM1 080233Z 01002KT 00/M01 A3045 RMK A01 T00011011  RH  092%=      5-min Rain = 0
KUM1 080234Z 01002KT 00/01 A3045 RMK A01 T00000-12  RH  092%=      5-min Rain = 0
KUM1 080235Z 01002KT 00/M01 A3045 RMK A01 T00011012  RH  091%=      5-min Rain = 0
KUM1 080236Z 02002KT 00/M01 A3045 RMK A01 T00011012  RH  091%=      5-min Rain = 0
KUM1 080237Z 02002KT 00/01 A3045 RMK A01 T00000-12  RH  091%=      5-min Rain = 0
KUM1 080238Z 01002KT 00/M01 A3046 RMK A01 T00011012  RH  092%=      5-min Rain = 0
KUM1 080239Z 01002KT 00/M01 A3046 RMK A01 T00011012  RH  092%=      5-min Rain = 0
KUM1 080240Z 00002KT 00/M01 A3046 RMK A01 T00011012  RH  091%=      5-min Rain = 0
KUM1 080241Z 36002KT 00/01 A3046 RMK A01 T00000-12  RH  091%=      5-min Rain = 0
KUM1 080242Z 01001KT 00/M01 A3046 RMK A01 T00011012  RH  092%=      5-min Rain = 0
KUM1 080243Z 00001KT 00/01 A3046 RMK A01 T00000-12  RH  092%=      5-min Rain = 0
KUM1 080244Z 00001KT 00/M01 A3046 RMK A01 T00011011  RH  092%=      5-min Rain = 0
KUM1 080245Z 00001KT 00/M01 A3046 RMK A01 T00011012  RH  092%=      5-min Rain = 0
KUM1 080246Z 01001KT 00/M01 A3046 RMK A01 T00011011  RH  092%=      5-min Rain = 0
KUM1 080247Z 01001KT 00/M01 A3046 RMK A01 T00011011  RH  092%=      5-min Rain = 0
KUM1 080248Z 01001KT 00/M01 A3046 RMK A01 T00011011  RH  092%=      5-min Rain = 0
KUM1 080249Z 02001KT 00/M01 A3046 RMK A01 T00011012  RH  091%=      5-min Rain = 0
KUM1 080250Z 01001KT 00/M01 A3046 RMK A01 T00011011  RH  092%=      5-min Rain = 0
KUM1 080251Z 01001KT 00/M01 A3046 RMK A01 T00011011  RH  092%=      5-min Rain = 0
KUM1 080252Z 01001KT 00/M01 A3046 RMK A01 T00011011  RH  092%=      5-min Rain = 0
KUM1 080253Z 01001KT 00/M01 A3046 RMK A01 T00011010  RH  092%=      5-min Rain = 0
KUM1 080254Z 02002KT 00/M01 A3046 RMK A01 T00011010  RH  092%=      5-min Rain = 0
KUM1 080255Z 02002KT 00/M01 A3046 RMK A01 T00021010  RH  092%=      5-min Rain = 0
KUM1 080256Z 02002KT 00/M01 A3046 RMK A01 T00011011  RH  092%=      5-min Rain = 0
KUM1 080257Z 02002KT 00/M01 A3046 RMK A01 T00011011  RH  091%=      5-min Rain = 0
KUM1 080258Z 03002KT 00/M01 A3046 RMK A01 T00011012  RH  091%=      5-min Rain = 0
KUM1 080259Z 03002KT 00/M01 A3046 RMK A01 T00011012  RH  091%=      5-min Rain = 0
KUM1 080300Z 02002KT 00/M01 A3046 RMK A01 T00011012  RH  091%=      5-min Rain = 0
KUM1 080301Z 03002KT 00/M01 A3046 RMK A01 T00021013  RH  090%=      5-min Rain = 0
KUM1 080302Z 03002KT 00/M01 A3046 RMK A01 T00021013  RH  090%=      5-min Rain = 0
KUM1 080303Z 02002KT 00/M01 A3046 RMK A01 T00011012  RH  091%=      5-min Rain = 0
KUM1 080304Z 03001KT 00/M01 A3046 RMK A01 T00011012  RH  091%=      5-min Rain = 0
KUM1 080305Z 02001KT 00/M01 A3046 RMK A01 T00021012  RH  091%=      5-min Rain = 0
KUM1 080306Z 02001KT 00/M01 A3046 RMK A01 T00021012  RH  091%=      5-min Rain = 0
KUM1 080307Z 01001KT 00/M01 A3046 RMK A01 T00021012  RH  090%=      5-min Rain = 0
KUM1 080308Z 01001KT 00/M01 A3046 RMK A01 T00011013  RH  090%=      5-min Rain = 0
KUM1 080309Z 36001KT 00/M01 A3046 RMK A01 T00021013  RH  090%=      5-min Rain = 0
KUM1 080310Z 35001KT 00/M01 A3046 RMK A01 T00011013  RH  090%=      5-min Rain = 0
KUM1 080311Z 34001KT 00/M01 A3046 RMK A01 T00011013  RH  090%=      5-min Rain = 0
KUM1 080312Z 35002KT 00/M01 A3046 RMK A01 T00021013  RH  090%=      5-min Rain = 0
KUM1 080313Z 35002KT 00/M01 A3046 RMK A01 T00021013  RH  090%=      5-min Rain = 0
KUM1 080314Z 35002KT 00/M01 A3046 RMK A01 T00011013  RH  090%=      5-min Rain = 0
KUM1 080315Z 35002KT 00/M01 A3046 RMK A01 T00011013  RH  090%=      5-min Rain = 0
KUM1 080316Z 34002KT 00/M01 A3046 RMK A01 T00011014  RH  090%=      5-min Rain = 0
KUM1 080317Z 34002KT 00/M01 A3046 RMK A01 T00021013  RH  090%=      5-min Rain = 0
KUM1 080318Z 34002KT 00/M01 A3046 RMK A01 T00021012  RH  090%=      5-min Rain = 0
KUM1 080319Z 34002KT 00/M01 A3046 RMK A01 T00021012  RH  091%=      5-min Rain = 0
KUM1 080320Z 33002KT 00/M01 A3046 RMK A01 T00021012  RH  091%=      5-min Rain = 0
KUM1 080321Z 35002KT 00/M01 A3046 RMK A01 T00021012  RH  091%=      5-min Rain = 0
KUM1 080322Z 35002KT 00/M01 A3046 RMK A01 T00021012  RH  090%=      5-min Rain = 0
KUM1 080323Z 36002KT 00/M01 A3046 RMK A01 T00021013  RH  090%=      5-min Rain = 0
KUM1 080324Z 01002KT 00/M01 A3046 RMK A01 T00021013  RH  090%=      5-min Rain = 0
KUM1 080325Z 00002KT 00/M01 A3046 RMK A01 T00021013  RH  090%=      5-min Rain = 0
KUM1 080326Z 01002KT 00/M01 A3046 RMK A01 T00021013  RH  090%=      5-min Rain = 0
KUM1 080327Z 36002KT 00/M01 A3046 RMK A01 T00021013  RH  090%=      5-min Rain = 0
KUM1 080328Z 36002KT 00/M01 A3046 RMK A01 T00021011  RH  091%=      5-min Rain = 0
KUM1 080329Z 35002KT 00/M01 A3046 RMK A01 T00031010  RH  091%=      5-min Rain = 0
KUM1 080330Z 36002KT 00/M01 A3046 RMK A01 T00021011  RH  091%=      5-min Rain = 0
KUM1 080331Z 01002KT 00/M01 A3046 RMK A01 T00031011  RH  091%=      5-min Rain = 0
KUM1 080332Z 01002KT 00/M01 A3046 RMK A01 T00021012  RH  090%=      5-min Rain = 0
KUM1 080333Z 01002KT 00/M01 A3046 RMK A01 T00021013  RH  090%=      5-min Rain = 0
KUM1 080334Z 02002KT 00/M01 A3046 RMK A01 T00021013  RH  090%=      5-min Rain = 0
KUM1 080335Z 01002KT 00/M01 A3046 RMK A01 T00021012  RH  090%=      5-min Rain = 0
KUM1 080336Z 01002KT 00/M01 A3046 RMK A01 T00021013  RH  090%=      5-min Rain = 0
KUM1 080337Z 00003KT 00/M01 A3046 RMK A01 T00021013  RH  090%=      5-min Rain = 0
KUM1 080338Z 00003KT 00/M01 A3046 RMK A01 T00021013  RH  090%=      5-min Rain = 0
KUM1 080339Z 36002KT 00/M01 A3046 RMK A01 T00021013  RH  090%=      5-min Rain = 0
KUM1 080340Z 00003KT 00/M01 A3046 RMK A01 T00021012  RH  090%=      5-min Rain = 0
KUM1 080341Z 36002KT 00/M01 A3047 RMK A01 T00021012  RH  090%=      5-min Rain = 0
KUM1 080342Z 36002KT 00/M01 A3047 RMK A01 T00021012  RH  090%=      5-min Rain = 0
KUM1 080343Z 36002KT 00/M01 A3047 RMK A01 T00021012  RH  090%=      5-min Rain = 0
KUM1 080344Z 35002KT 00/M01 A3047 RMK A01 T00021012  RH  090%=      5-min Rain = 0
KUM1 080345Z 34002KT 00/M01 A3047 RMK A01 T00021012  RH  090%=      5-min Rain = 0
KUM1 080346Z 34002KT 00/M01 A3047 RMK A01 T00021011  RH  091%=      5-min Rain = 0
KUM1 080347Z 35001KT 00/M01 A3047 RMK A01 T00021012  RH  090%=      5-min Rain = 0
KUM1 080348Z 35001KT 00/M01 A3047 RMK A01 T00031012  RH  090%=      5-min Rain = 0
KUM1 080349Z 35001KT 00/M01 A3047 RMK A01 T00021012  RH  090%=      5-min Rain = 0
KUM1 080350Z 35002KT 00/M01 A3047 RMK A01 T00021012  RH  090%=      5-min Rain = 0
KUM1 080351Z 35002KT 00/M01 A3047 RMK A01 T00021012  RH  090%=      5-min Rain = 0
KUM1 080352Z 35002KT 00/M01 A3047 RMK A01 T00021012  RH  090%=      5-min Rain = 0
KUM1 080353Z 35002KT 00/M01 A3047 RMK A01 T00021013  RH  089%=      5-min Rain = 0
KUM1 080354Z 35002KT 00/M01 A3047 RMK A01 T00021014  RH  089%=      5-min Rain = 0
KUM1 080355Z 35001KT 00/M01 A3047 RMK A01 T00021014  RH  089%=      5-min Rain = 0
KUM1 080356Z 00001KT 00/M01 A3047 RMK A01 T00021014  RH  089%=      5-min Rain = 0
KUM1 080357Z 01001KT 00/M01 A3047 RMK A01 T00021013  RH  090%=      5-min Rain = 0
KUM1 080358Z 01001KT 00/M01 A3047 RMK A01 T00021013  RH  090%=      5-min Rain = 0
KUM1 080359Z 01001KT 00/M01 A3047 RMK A01 T00021013  RH  090%=      5-min Rain = 0
KUM1 080400Z 00001KT 00/M01 A3047 RMK A01 T00021012  RH  090%=      5-min Rain = 0
KUM1 080401Z 00001KT 00/M01 A3047 RMK A01 T00021012  RH  090%=      5-min Rain = 0
KUM1 080402Z 01001KT 00/M01 A3047 RMK A01 T00031013  RH  090%=      5-min Rain = 0
KUM1 080403Z 01001KT 00/M01 A3047 RMK A01 T00021013  RH  089%=      5-min Rain = 0
KUM1 080404Z 01000KT 00/M01 A3047 RMK A01 T00021014  RH  089%=      5-min Rain = 0
KUM1 080405Z 00000KT 00/M01 A3047 RMK A01 T00021013  RH  089%=      5-min Rain = 0
KUM1 080406Z 00000KT 00/M01 A3047 RMK A01 T00021013  RH  089%=      5-min Rain = 0
KUM1 080407Z 00000KT 00/M01 A3047 RMK A01 T00031013  RH  089%=      5-min Rain = 0
KUM1 080408Z 00000KT 00/M01 A3047 RMK A01 T00021013  RH  089%=      5-min Rain = 0
KUM1 080409Z 00000KT 00/M01 A3047 RMK A01 T00021013  RH  090%=      5-min Rain = 0
KUM1 080410Z 00000KT 00/M01 A3047 RMK A01 T00021013  RH  090%=      5-min Rain = 0
KUM1 080411Z 00000KT 00/M01 A3047 RMK A01 T00021013  RH  090%=      5-min Rain = 0
KUM1 080412Z 00000KT 00/M01 A3047 RMK A01 T00021013  RH  090%=      5-min Rain = 0
KUM1 080413Z 00000KT 00/M01 A3047 RMK A01 T00021014  RH  089%=      5-min Rain = 0
KUM1 080414Z 00000KT 00/M01 A3047 RMK A01 T00021014  RH  089%=      5-min Rain = 0
KUM1 080415Z 00000KT 00/M01 A3047 RMK A01 T00021014  RH  089%=      5-min Rain = 0
KUM1 080416Z 00000KT 00/M01 A3047 RMK A01 T00021013  RH  090%=      5-min Rain = 0
KUM1 080417Z 00000KT 00/M01 A3047 RMK A01 T00021013  RH  090%=      5-min Rain = 0
KUM1 080418Z 00000KT 00/M01 A3047 RMK A01 T00021012  RH  090%=      5-min Rain = 0
KUM1 080419Z 00000KT 00/M01 A3047 RMK A01 T00021012  RH  090%=      5-min Rain = 0
KUM1 080420Z 00000KT 00/M01 A3047 RMK A01 T00021012  RH  090%=      5-min Rain = 0
KUM1 080421Z 00000KT 00/M01 A3047 RMK A01 T00021013  RH  090%=      5-min Rain = 0
KUM1 080422Z 00000KT 00/M01 A3047 RMK A01 T00021014  RH  089%=      5-min Rain = 0
KUM1 080423Z 00000KT 00/M01 A3047 RMK A01 T00021014  RH  089%=      5-min Rain = 0
KUM1 080424Z 00000KT 00/M01 A3047 RMK A01 T00021013  RH  089%=      5-min Rain = 0
KUM1 080425Z 00000KT 00/M01 A3047 RMK A01 T00021013  RH  090%=      5-min Rain = 0
KUM1 080426Z 00000KT 00/M01 A3047 RMK A01 T00031012  RH  090%=      5-min Rain = 0
KUM1 080427Z 00000KT 00/M01 A3047 RMK A01 T00021013  RH  089%=      5-min Rain = 0
KUM1 080428Z 00000KT 00/M01 A3047 RMK A01 T00021014  RH  089%=      5-min Rain = 0
KUM1 080429Z 00000KT 00/M02 A3047 RMK A01 T00031015  RH  088%=      5-min Rain = 0
KUM1 080430Z 00000KT 00/M02 A3047 RMK A01 T00031015  RH  087%=      5-min Rain = 0
KUM1 080431Z 00000KT 00/M02 A3047 RMK A01 T00031015  RH  087%=      5-min Rain = 0
KUM1 080432Z 00000KT 00/M02 A3047 RMK A01 T00031016  RH  087%=      5-min Rain = 0
KUM1 080433Z 00000KT 00/M02 A3047 RMK A01 T00031016  RH  087%=      5-min Rain = 0
KUM1 080434Z 00000KT 00/M02 A3047 RMK A01 T00031016  RH  087%=      5-min Rain = 0
KUM1 080435Z 00000KT 00/M02 A3047 RMK A01 T00031016  RH  087%=      5-min Rain = 0
KUM1 080436Z 00000KT 00/M02 A3047 RMK A01 T00031015  RH  087%=      5-min Rain = 0
KUM1 080437Z 00000KT 00/M01 A3047 RMK A01 T00031014  RH  088%=      5-min Rain = 0
KUM1 080438Z 00000KT 00/M01 A3047 RMK A01 T00031014  RH  088%=      5-min Rain = 0
KUM1 080439Z 00000KT 00/M01 A3047 RMK A01 T00031013  RH  089%=      5-min Rain = 0
KUM1 080440Z 00000KT 00/M01 A3047 RMK A01 T00031013  RH  088%=      5-min Rain = 0
KUM1 080441Z 00000KT 00/M01 A3047 RMK A01 T00031014  RH  088%=      5-min Rain = 0
KUM1 080442Z 00000KT 00/M01 A3047 RMK A01 T00031013  RH  089%=      5-min Rain = 0
KUM1 080443Z 00000KT 00/M01 A3047 RMK A01 T00041012  RH  089%=      5-min Rain = 0
KUM1 080444Z 00000KT 00/M01 A3047 RMK A01 T00031012  RH  089%=      5-min Rain = 0
KUM1 080445Z 00000KT 00/M01 A3047 RMK A01 T00031013  RH  089%=      5-min Rain = 0
KUM1 080446Z 00000KT 00/M01 A3047 RMK A01 T00031013  RH  089%=      5-min Rain = 0
KUM1 080447Z 00000KT 00/M01 A3047 RMK A01 T00031013  RH  089%=      5-min Rain = 0
KUM1 080448Z 00000KT 00/M01 A3047 RMK A01 T00041012  RH  089%=      5-min Rain = 0
KUM1 080449Z 00000KT 00/M01 A3047 RMK A01 T00041012  RH  089%=      5-min Rain = 0
KUM1 080450Z 00000KT 00/M01 A3047 RMK A01 T00041013  RH  089%=      5-min Rain = 0
KUM1 080451Z 00000KT 00/M01 A3047 RMK A01 T00041013  RH  089%=      5-min Rain = 0
KUM1 080452Z 00000KT 01/M01 A3047 RMK A01 T00051011  RH  089%=      5-min Rain = 0
KUM1 080453Z 00000KT 01/M01 A3047 RMK A01 T00051011  RH  089%=      5-min Rain = 0
KUM1 080454Z 00000KT 01/M01 A3046 RMK A01 T00051012  RH  089%=      5-min Rain = 0.01
KUM1 080455Z 00000KT 01/M01 A3046 RMK A01 T00051012  RH  088%=      5-min Rain = 0
KUM1 080456Z 00000KT 01/M01 A3046 RMK A01 T00051013  RH  088%=      5-min Rain = 0
KUM1 080457Z 00000KT 01/M01 A3046 RMK A01 T00051014  RH  087%=      5-min Rain = 0
KUM1 080458Z 00000KT 01/M02 A3046 RMK A01 T00051016  RH  086%=      5-min Rain = 0
KUM1 080459Z 00000KT 01/M02 A3046 RMK A01 T00051016  RH  086%=      5-min Rain = 0
KUM1 080500Z 00000KT 01/M02 A3046 RMK A01 T00051016  RH  086%=      5-min Rain = 0
KUM1 080501Z 00000KT 01/M02 A3046 RMK A01 T00051017  RH  085%=      5-min Rain = 0
KUM1 080502Z 00000KT 01/M02 A3046 RMK A01 T00051019  RH  084%=      5-min Rain = 0
KUM1 080503Z 00000KT 01/M02 A3046 RMK A01 T00051020  RH  083%=      5-min Rain = 0
KUM1 080504Z 00000KT 01/M02 A3046 RMK A01 T00051019  RH  084%=      5-min Rain = 0
KUM1 080505Z 00000KT 01/M02 A3046 RMK A01 T00051017  RH  086%=      5-min Rain = 0
KUM1 080506Z 00000KT 01/M02 A3046 RMK A01 T00051016  RH  086%=      5-min Rain = 0
KUM1 080507Z 00000KT 01/M02 A3046 RMK A01 T00051018  RH  085%=      5-min Rain = 0
KUM1 080508Z 00000KT 01/M02 A3046 RMK A01 T00051019  RH  084%=      5-min Rain = 0
KUM1 080509Z 00000KT 01/M02 A3046 RMK A01 T00051018  RH  085%=      5-min Rain = 0
KUM1 080510Z 00000KT 01/M02 A3046 RMK A01 T00051018  RH  085%=      5-min Rain = 0
KUM1 080511Z 00000KT 01/M02 A3046 RMK A01 T00051017  RH  085%=      5-min Rain = 0
KUM1 080512Z 00000KT 01/M02 A3046 RMK A01 T00051016  RH  086%=      5-min Rain = 0
KUM1 080513Z 00000KT 01/M02 A3046 RMK A01 T00051016  RH  086%=      5-min Rain = 0
KUM1 080514Z 00000KT 01/M02 A3046 RMK A01 T00051016  RH  086%=      5-min Rain = 0
KUM1 080515Z 00000KT 01/M02 A3046 RMK A01 T00051018  RH  085%=      5-min Rain = 0
KUM1 080516Z 00000KT 00/M02 A3046 RMK A01 T00041021  RH  083%=      5-min Rain = 0
KUM1 080517Z 00000KT 00/M02 A3046 RMK A01 T00041023  RH  082%=      5-min Rain = 0
KUM1 080518Z 00000KT 00/M02 A3046 RMK A01 T00041022  RH  082%=      5-min Rain = 0
KUM1 080519Z 00000KT 01/M02 A3046 RMK A01 T00051020  RH  084%=      5-min Rain = 0
KUM1 080520Z 19000KT 01/M02 A3045 RMK A01 T00051018  RH  085%=      5-min Rain = 0
KUM1 080521Z 18001KT 01/M02 A3045 RMK A01 T00051018  RH  085%=      5-min Rain = 0
KUM1 080522Z 18001KT 01/M02 A3045 RMK A01 T00051019  RH  084%=      5-min Rain = 0
KUM1 080523Z 17002KT 01/M02 A3045 RMK A01 T00051019  RH  084%=      5-min Rain = 0
KUM1 080524Z 18002KT 01/M02 A3045 RMK A01 T00051019  RH  084%=      5-min Rain = 0
KUM1 080525Z 18002KT 01/M02 A3045 RMK A01 T00051019  RH  084%=      5-min Rain = 0
KUM1 080526Z 18002KT 01/M02 A3045 RMK A01 T00051018  RH  085%=      5-min Rain = 0
KUM1 080527Z 18002KT 01/M02 A3045 RMK A01 T00051016  RH  086%=      5-min Rain = 0
KUM1 080528Z 18002KT 01/M02 A3045 RMK A01 T00051016  RH  086%=      5-min Rain = 0
KUM1 080529Z 18002KT 01/M02 A3045 RMK A01 T00051017  RH  085%=      5-min Rain = 0
KUM1 080530Z 19002KT 01/M02 A3045 RMK A01 T00051017  RH  085%=      5-min Rain = 0
KUM1 080531Z 19002KT 01/M02 A3045 RMK A01 T00051017  RH  085%=      5-min Rain = 0
KUM1 080532Z 19002KT 01/M02 A3045 RMK A01 T00051017  RH  085%=      5-min Rain = 0
KUM1 080533Z 18002KT 01/M02 A3045 RMK A01 T00051017  RH  085%=      5-min Rain = 0
KUM1 080534Z 19002KT 01/M02 A3045 RMK A01 T00051018  RH  085%=      5-min Rain = 0
KUM1 080535Z 19002KT 01/M02 A3045 RMK A01 T00051017  RH  085%=      5-min Rain = 0
KUM1 080536Z 19002KT 01/M02 A3045 RMK A01 T00051016  RH  086%=      5-min Rain = 0
KUM1 080537Z 18002KT 01/M02 A3045 RMK A01 T00051016  RH  086%=      5-min Rain = 0
KUM1 080538Z 19002KT 01/M02 A3045 RMK A01 T00051018  RH  084%=      5-min Rain = 0
KUM1 080539Z 19001KT 01/M02 A3045 RMK A01 T00051017  RH  085%=      5-min Rain = 0
KUM1 080540Z 18001KT 01/M02 A3045 RMK A01 T00051015  RH  086%=      5-min Rain = 0
KUM1 080541Z 19001KT 01/M01 A3045 RMK A01 T00051014  RH  087%=      5-min Rain = 0
KUM1 080542Z 18002KT 01/M02 A3045 RMK A01 T00051015  RH  086%=      5-min Rain = 0
KUM1 080543Z 19001KT 01/M02 A3045 RMK A01 T00051016  RH  086%=      5-min Rain = 0
KUM1 080544Z 20001KT 01/M02 A3045 RMK A01 T00051017  RH  085%=      5-min Rain = 0
KUM1 080545Z 20002KT 01/M02 A3045 RMK A01 T00051016  RH  086%=      5-min Rain = 0
KUM1 080546Z 21002KT 01/M02 A3045 RMK A01 T00051017  RH  085%=      5-min Rain = 0
KUM1 080547Z 22001KT 01/M02 A3045 RMK A01 T00051016  RH  086%=      5-min Rain = 0
KUM1 080548Z 22002KT 01/M02 A3045 RMK A01 T00051017  RH  085%=      5-min Rain = 0
KUM1 080549Z 22001KT 01/M02 A3045 RMK A01 T00051019  RH  084%=      5-min Rain = 0
KUM1 080550Z 22001KT 01/M02 A3045 RMK A01 T00051018  RH  085%=      5-min Rain = 0
KUM1 080551Z 21001KT 01/M02 A3045 RMK A01 T00051017  RH  085%=      5-min Rain = 0
KUM1 080552Z 22002KT 01/M02 A3045 RMK A01 T00051018  RH  085%=      5-min Rain = 0
KUM1 080553Z 21001KT 01/M02 A3045 RMK A01 T00051020  RH  083%=      5-min Rain = 0
KUM1 080554Z 20001KT 01/M02 A3045 RMK A01 T00051023  RH  081%=      5-min Rain = 0
KUM1 080555Z 20001KT 01/M02 A3045 RMK A01 T00051023  RH  081%=      5-min Rain = 0
KUM1 080556Z 21001KT 01/M02 A3045 RMK A01 T00061020  RH  083%=      5-min Rain = 0
KUM1 080557Z 22002KT 01/M02 A3045 RMK A01 T00061019  RH  084%=      5-min Rain = 0
KUM1 080558Z 22002KT 01/M02 A3045 RMK A01 T00061019  RH  083%=      5-min Rain = 0
KUM1 080559Z 23001KT 01/M02 A3045 RMK A01 T00061022  RH  082%=      5-min Rain = 0

Page generated in 0.0707 seconds.